Observation data for Odell on 04/22/2019      Previous  Date  Next       Current Mesonet Observations  Soil Data  Daily Summary Page  Observations in Plain Language
KOD1 220500Z 16017KT 22/14 A2983 RMK A01 T02160142  RH  063%=      5-min Rain = 0
KOD1 220501Z 16018KT 22/14 A2983 RMK A01 T02170142  RH  063%=      5-min Rain = 0
KOD1 220502Z 16018KT 22/14 A2983 RMK A01 T02160142  RH  063%=      5-min Rain = 0
KOD1 220503Z 16019KT 22/14 A2983 RMK A01 T02170143  RH  063%=      5-min Rain = 0
KOD1 220504Z 16018KT 22/14 A2983 RMK A01 T02160142  RH  063%=      5-min Rain = 0
KOD1 220505Z 16017KT 22/14 A2983 RMK A01 T02170143  RH  063%=      5-min Rain = 0
KOD1 220506Z 16018KT 22/14 A2983 RMK A01 T02160143  RH  063%=      5-min Rain = 0
KOD1 220507Z 16018KT 22/14 A2983 RMK A01 T02160143  RH  063%=      5-min Rain = 0
KOD1 220508Z 16020KT 22/14 A2983 RMK A01 T02160143  RH  063%=      5-min Rain = 0
KOD1 220509Z 16018KT 22/14 A2983 RMK A01 T02160143  RH  063%=      5-min Rain = 0
KOD1 220510Z 16019KT 22/14 A2983 RMK A01 T02160143  RH  063%=      5-min Rain = 0
KOD1 220511Z 16017KT 22/14 A2983 RMK A01 T02160143  RH  063%=      5-min Rain = 0
KOD1 220512Z 16018KT 22/14 A2983 RMK A01 T02160143  RH  063%=      5-min Rain = 0
KOD1 220513Z 17016KT 22/14 A2983 RMK A01 T02150143  RH  063%=      5-min Rain = 0
KOD1 220514Z 17018KT 22/14 A2983 RMK A01 T02150143  RH  063%=      5-min Rain = 0
KOD1 220515Z 16018KT 22/14 A2983 RMK A01 T02150143  RH  063%=      5-min Rain = 0
KOD1 220516Z 16018KT 22/14 A2983 RMK A01 T02150143  RH  064%=      5-min Rain = 0
KOD1 220517Z 16017G22KT 22/14 A2983 RMK A01 T02150143  RH  064%=      5-min Rain = 0
KOD1 220518Z 17019KT 22/14 A2983 RMK A01 T02150143  RH  064%=      5-min Rain = 0
KOD1 220519Z 17019KT 22/14 A2983 RMK A01 T02150143  RH  064%=      5-min Rain = 0
KOD1 220520Z 17018KT 22/14 A2983 RMK A01 T02160144  RH  063%=      5-min Rain = 0
KOD1 220521Z 17019KT 22/14 A2983 RMK A01 T02150144  RH  064%=      5-min Rain = 0
KOD1 220522Z 16018KT 22/14 A2983 RMK A01 T02160144  RH  064%=      5-min Rain = 0
KOD1 220523Z 16017KT 22/14 A2983 RMK A01 T02150144  RH  064%=      5-min Rain = 0
KOD1 220524Z 16017KT 21/14 A2983 RMK A01 T02140144  RH  064%=      5-min Rain = 0
KOD1 220525Z 17017KT 21/14 A2983 RMK A01 T02140144  RH  064%=      5-min Rain = 0
KOD1 220526Z 17018KT 21/14 A2983 RMK A01 T02130144  RH  065%=      5-min Rain = 0
KOD1 220527Z 16017KT 21/14 A2983 RMK A01 T02140144  RH  064%=      5-min Rain = 0
KOD1 220528Z 16017KT 21/14 A2983 RMK A01 T02140144  RH  064%=      5-min Rain = 0
KOD1 220529Z 16018KT 21/14 A2983 RMK A01 T02130144  RH  065%=      5-min Rain = 0
KOD1 220530Z 17017KT 21/14 A2983 RMK A01 T02130144  RH  065%=      5-min Rain = 0
KOD1 220531Z 16016KT 21/14 A2983 RMK A01 T02130144  RH  065%=      5-min Rain = 0
KOD1 220532Z 17017KT 21/14 A2983 RMK A01 T02130144  RH  065%=      5-min Rain = 0
KOD1 220533Z 17017KT 21/14 A2983 RMK A01 T02130144  RH  065%=      5-min Rain = 0
KOD1 220534Z 17018KT 21/15 A2983 RMK A01 T02130145  RH  065%=      5-min Rain = 0
KOD1 220535Z 16017KT 21/14 A2983 RMK A01 T02140144  RH  065%=      5-min Rain = 0
KOD1 220536Z 17016KT 21/15 A2983 RMK A01 T02140145  RH  065%=      5-min Rain = 0
KOD1 220537Z 17017G22KT 21/15 A2983 RMK A01 T02130145  RH  065%=      5-min Rain = 0
KOD1 220538Z 17016KT 21/15 A2983 RMK A01 T02130145  RH  065%=      5-min Rain = 0
KOD1 220539Z 17018KT 21/15 A2983 RMK A01 T02130145  RH  065%=      5-min Rain = 0
KOD1 220540Z 17017KT 21/15 A2983 RMK A01 T02130145  RH  065%=      5-min Rain = 0
KOD1 220541Z 17017KT 21/15 A2983 RMK A01 T02130145  RH  065%=      5-min Rain = 0
KOD1 220542Z 17017KT 21/15 A2983 RMK A01 T02130145  RH  065%=      5-min Rain = 0
KOD1 220543Z 17016KT 21/15 A2983 RMK A01 T02120145  RH  065%=      5-min Rain = 0
KOD1 220544Z 17017KT 21/15 A2983 RMK A01 T02120145  RH  066%=      5-min Rain = 0
KOD1 220545Z 17015KT 21/15 A2983 RMK A01 T02120145  RH  066%=      5-min Rain = 0
KOD1 220546Z 17018KT 21/15 A2984 RMK A01 T02120145  RH  066%=      5-min Rain = 0
KOD1 220547Z 17016KT 21/15 A2984 RMK A01 T02120145  RH  066%=      5-min Rain = 0
KOD1 220548Z 17018KT 21/15 A2983 RMK A01 T02120145  RH  066%=      5-min Rain = 0
KOD1 220549Z 17016KT 21/15 A2984 RMK A01 T02120145  RH  065%=      5-min Rain = 0
KOD1 220550Z 17016KT 21/15 A2984 RMK A01 T02110145  RH  066%=      5-min Rain = 0
KOD1 220551Z 17017KT 21/15 A2984 RMK A01 T02100145  RH  066%=      5-min Rain = 0
KOD1 220552Z 17016KT 21/15 A2984 RMK A01 T02110145  RH  066%=      5-min Rain = 0
KOD1 220553Z 17016KT 21/15 A2984 RMK A01 T02110145  RH  066%=      5-min Rain = 0
KOD1 220554Z 16016KT 21/15 A2984 RMK A01 T02100145  RH  066%=      5-min Rain = 0
KOD1 220555Z 17016KT 21/15 A2984 RMK A01 T02100145  RH  067%=      5-min Rain = 0
KOD1 220556Z 16017KT 21/15 A2984 RMK A01 T02090145  RH  067%=      5-min Rain = 0
KOD1 220557Z 16017KT 21/15 A2984 RMK A01 T02090145  RH  067%=      5-min Rain = 0
KOD1 220558Z 17015KT 21/15 A2984 RMK A01 T02090146  RH  067%=      5-min Rain = 0
KOD1 220559Z 16015KT 21/15 A2984 RMK A01 T02090146  RH  067%=      5-min Rain = 0
KOD1 220600Z 17015KT 21/15 A2984 RMK A01 T02080146  RH  067%=      5-min Rain = 0
KOD1 220601Z 17015KT 21/15 A2984 RMK A01 T02080146  RH  068%=      5-min Rain = 0
KOD1 220602Z 16016KT 21/15 A2984 RMK A01 T02080146  RH  068%=      5-min Rain = 0
KOD1 220603Z 16017KT 21/15 A2984 RMK A01 T02080146  RH  068%=      5-min Rain = 0
KOD1 220604Z 16016KT 21/15 A2984 RMK A01 T02080146  RH  067%=      5-min Rain = 0
KOD1 220605Z 16016KT 21/15 A2984 RMK A01 T02090146  RH  067%=      5-min Rain = 0
KOD1 220606Z 17016KT 21/15 A2984 RMK A01 T02080146  RH  068%=      5-min Rain = 0
KOD1 220607Z 17014KT 21/15 A2984 RMK A01 T02080146  RH  068%=      5-min Rain = 0
KOD1 220608Z 16016KT 21/15 A2984 RMK A01 T02070146  RH  068%=      5-min Rain = 0
KOD1 220609Z 16017KT 21/15 A2984 RMK A01 T02080146  RH  068%=      5-min Rain = 0
KOD1 220610Z 17015KT 21/15 A2984 RMK A01 T02080147  RH  068%=      5-min Rain = 0
KOD1 220611Z 17016KT 21/15 A2984 RMK A01 T02080147  RH  068%=      5-min Rain = 0
KOD1 220612Z 17016G22KT 21/15 A2984 RMK A01 T02070147  RH  068%=      5-min Rain = 0
KOD1 220613Z 17016KT 21/15 A2984 RMK A01 T02080147  RH  068%=      5-min Rain = 0
KOD1 220614Z 17015KT 21/15 A2984 RMK A01 T02070147  RH  068%=      5-min Rain = 0
KOD1 220615Z 17015KT 21/15 A2984 RMK A01 T02070147  RH  068%=      5-min Rain = 0
KOD1 220616Z 17016KT 21/15 A2984 RMK A01 T02060147  RH  069%=      5-min Rain = 0
KOD1 220617Z 17017KT 21/15 A2984 RMK A01 T02060147  RH  069%=      5-min Rain = 0
KOD1 220618Z 17015KT 21/15 A2984 RMK A01 T02070147  RH  069%=      5-min Rain = 0
KOD1 220619Z 17017KT 21/15 A2984 RMK A01 T02060147  RH  069%=      5-min Rain = 0
KOD1 220620Z 17016KT 21/15 A2984 RMK A01 T02060147  RH  069%=      5-min Rain = 0
KOD1 220621Z 17017KT 21/15 A2984 RMK A01 T02060147  RH  069%=      5-min Rain = 0
KOD1 220622Z 16016KT 21/15 A2984 RMK A01 T02060147  RH  069%=      5-min Rain = 0
KOD1 220623Z 16016KT 21/15 A2984 RMK A01 T02060147  RH  069%=      5-min Rain = 0
KOD1 220624Z 16015KT 21/15 A2984 RMK A01 T02050147  RH  069%=      5-min Rain = 0
KOD1 220625Z 17016KT 21/15 A2984 RMK A01 T02050147  RH  069%=      5-min Rain = 0
KOD1 220626Z 16016G21KT 21/15 A2984 RMK A01 T02050147  RH  070%=      5-min Rain = 0
KOD1 220627Z 17015KT 20/15 A2984 RMK A01 T02040147  RH  070%=      5-min Rain = 0
KOD1 220628Z 16016KT 20/15 A2984 RMK A01 T02040147  RH  070%=      5-min Rain = 0
KOD1 220629Z 17014KT 20/15 A2984 RMK A01 T02040147  RH  070%=      5-min Rain = 0
KOD1 220630Z 16016KT 20/15 A2984 RMK A01 T02030148  RH  070%=      5-min Rain = 0
KOD1 220631Z 17014KT 20/15 A2984 RMK A01 T02030148  RH  071%=      5-min Rain = 0
KOD1 220632Z 17017KT 20/15 A2984 RMK A01 T02030148  RH  071%=      5-min Rain = 0
KOD1 220633Z 16017KT 20/15 A2984 RMK A01 T02030148  RH  071%=      5-min Rain = 0
KOD1 220634Z 16017KT 20/15 A2984 RMK A01 T02030148  RH  071%=      5-min Rain = 0
KOD1 220635Z 16016KT 20/15 A2984 RMK A01 T02030148  RH  071%=      5-min Rain = 0
KOD1 220636Z 16016KT 20/15 A2984 RMK A01 T02030148  RH  071%=      5-min Rain = 0
KOD1 220637Z 17017KT 20/15 A2984 RMK A01 T02030148  RH  071%=      5-min Rain = 0
KOD1 220638Z 17016G21KT 20/15 A2984 RMK A01 T02030148  RH  070%=      5-min Rain = 0
KOD1 220639Z 16017KT 20/15 A2984 RMK A01 T02030148  RH  070%=      5-min Rain = 0
KOD1 220640Z 16016KT 20/15 A2984 RMK A01 T02030148  RH  071%=      5-min Rain = 0
KOD1 220641Z 16017KT 20/15 A2984 RMK A01 T02020148  RH  071%=      5-min Rain = 0
KOD1 220642Z 17017KT 20/15 A2984 RMK A01 T02020148  RH  071%=      5-min Rain = 0
KOD1 220643Z 16017KT 20/15 A2984 RMK A01 T02020148  RH  071%=      5-min Rain = 0
KOD1 220644Z 16016KT 20/15 A2984 RMK A01 T02020148  RH  071%=      5-min Rain = 0
KOD1 220645Z 16017KT 20/15 A2984 RMK A01 T02020148  RH  071%=      5-min Rain = 0
KOD1 220646Z 16014KT 20/15 A2984 RMK A01 T02020148  RH  071%=      5-min Rain = 0
KOD1 220647Z 16016KT 20/15 A2984 RMK A01 T02010148  RH  072%=      5-min Rain = 0
KOD1 220648Z 16016KT 20/15 A2984 RMK A01 T02010148  RH  072%=      5-min Rain = 0
KOD1 220649Z 16015KT 20/15 A2983 RMK A01 T02000148  RH  072%=      5-min Rain = 0
KOD1 220650Z 16016KT 20/15 A2983 RMK A01 T02000148  RH  072%=      5-min Rain = 0
KOD1 220651Z 16016KT 20/15 A2984 RMK A01 T02000148  RH  072%=      5-min Rain = 0
KOD1 220652Z 16015KT 20/15 A2984 RMK A01 T02000148  RH  072%=      5-min Rain = 0
KOD1 220653Z 16015KT 20/15 A2984 RMK A01 T01990148  RH  072%=      5-min Rain = 0
KOD1 220654Z 16015KT 20/15 A2984 RMK A01 T01990148  RH  072%=      5-min Rain = 0
KOD1 220655Z 16016KT 20/15 A2984 RMK A01 T01990148  RH  072%=      5-min Rain = 0
KOD1 220656Z 16016KT 20/15 A2984 RMK A01 T01990148  RH  072%=      5-min Rain = 0
KOD1 220657Z 16015KT 20/15 A2984 RMK A01 T01990148  RH  072%=      5-min Rain = 0
KOD1 220658Z 16014KT 20/15 A2984 RMK A01 T01990149  RH  073%=      5-min Rain = 0
KOD1 220659Z 16016KT 20/15 A2984 RMK A01 T01980148  RH  073%=      5-min Rain = 0
KOD1 220700Z 16016KT 20/15 A2984 RMK A01 T01990149  RH  073%=      5-min Rain = 0
KOD1 220701Z 16016KT 20/15 A2984 RMK A01 T01990148  RH  072%=      5-min Rain = 0
KOD1 220702Z 16017KT 20/15 A2984 RMK A01 T01990149  RH  073%=      5-min Rain = 0
KOD1 220703Z 16015KT 20/15 A2984 RMK A01 T01990148  RH  072%=      5-min Rain = 0
KOD1 220704Z 16016KT 20/15 A2984 RMK A01 T02000149  RH  072%=      5-min Rain = 0
KOD1 220705Z 16017KT 20/15 A2984 RMK A01 T02000149  RH  072%=      5-min Rain = 0
KOD1 220706Z 16014KT 20/15 A2984 RMK A01 T02000149  RH  072%=      5-min Rain = 0
KOD1 220707Z 16015KT 20/15 A2984 RMK A01 T01990149  RH  073%=      5-min Rain = 0
KOD1 220708Z 16015KT 20/15 A2984 RMK A01 T01990149  RH  073%=      5-min Rain = 0
KOD1 220709Z 16018KT 20/15 A2984 RMK A01 T01990149  RH  073%=      5-min Rain = 0
KOD1 220710Z 16017KT 20/15 A2984 RMK A01 T02000149  RH  072%=      5-min Rain = 0
KOD1 220711Z 16015KT 20/15 A2984 RMK A01 T01990149  RH  073%=      5-min Rain = 0
KOD1 220712Z 16017KT 20/15 A2984 RMK A01 T01980149  RH  073%=      5-min Rain = 0
KOD1 220713Z 16016KT 20/15 A2984 RMK A01 T01980149  RH  073%=      5-min Rain = 0
KOD1 220714Z 16016G21KT 20/15 A2984 RMK A01 T01980149  RH  073%=      5-min Rain = 0
KOD1 220715Z 16019KT 20/15 A2984 RMK A01 T01990149  RH  073%=      5-min Rain = 0
KOD1 220716Z 16018KT 20/15 A2984 RMK A01 T01990149  RH  073%=      5-min Rain = 0
KOD1 220717Z 17017KT 20/15 A2984 RMK A01 T01990149  RH  073%=      5-min Rain = 0
KOD1 220718Z 16018KT 20/15 A2984 RMK A01 T01990149  RH  073%=      5-min Rain = 0
KOD1 220719Z 17017G22KT 20/15 A2984 RMK A01 T01990149  RH  073%=      5-min Rain = 0
KOD1 220720Z 17017KT 20/15 A2984 RMK A01 T01990149  RH  073%=      5-min Rain = 0
KOD1 220721Z 17018KT 20/15 A2984 RMK A01 T01990149  RH  073%=      5-min Rain = 0
KOD1 220722Z 17018KT 20/15 A2984 RMK A01 T01980149  RH  073%=      5-min Rain = 0
KOD1 220723Z 17018KT 20/15 A2984 RMK A01 T01990149  RH  073%=      5-min Rain = 0
KOD1 220724Z 17017KT 20/15 A2984 RMK A01 T01990149  RH  073%=      5-min Rain = 0
KOD1 220725Z 17017KT 20/15 A2984 RMK A01 T01990149  RH  073%=      5-min Rain = 0
KOD1 220726Z 17016KT 20/15 A2984 RMK A01 T01980149  RH  073%=      5-min Rain = 0
KOD1 220727Z 17016KT 20/15 A2984 RMK A01 T01980149  RH  074%=      5-min Rain = 0
KOD1 220728Z 17018KT 20/15 A2984 RMK A01 T01980149  RH  074%=      5-min Rain = 0
KOD1 220729Z 17017KT 20/15 A2984 RMK A01 T01980149  RH  073%=      5-min Rain = 0
KOD1 220730Z 17018KT 20/15 A2984 RMK A01 T01980149  RH  073%=      5-min Rain = 0
KOD1 220731Z 16018KT 20/15 A2984 RMK A01 T01980149  RH  073%=      5-min Rain = 0
KOD1 220732Z 17017G22KT 20/15 A2984 RMK A01 T01980150  RH  073%=      5-min Rain = 0
KOD1 220733Z 17016KT 20/15 A2984 RMK A01 T01980150  RH  073%=      5-min Rain = 0
KOD1 220734Z 16017KT 20/15 A2984 RMK A01 T01970149  RH  074%=      5-min Rain = 0
KOD1 220735Z 16017KT 20/15 A2984 RMK A01 T01980150  RH  074%=      5-min Rain = 0
KOD1 220736Z 17017KT 20/15 A2984 RMK A01 T01970149  RH  074%=      5-min Rain = 0
KOD1 220737Z 16017KT 20/15 A2984 RMK A01 T01970149  RH  074%=      5-min Rain = 0
KOD1 220738Z 17016KT 20/15 A2984 RMK A01 T01970150  RH  074%=      5-min Rain = 0
KOD1 220739Z 17017KT 20/15 A2984 RMK A01 T01960149  RH  074%=      5-min Rain = 0
KOD1 220740Z 16015KT 20/15 A2984 RMK A01 T01960150  RH  074%=      5-min Rain = 0
KOD1 220741Z 16017KT 20/15 A2984 RMK A01 T01960150  RH  074%=      5-min Rain = 0
KOD1 220742Z 16016KT 20/15 A2984 RMK A01 T01970150  RH  074%=      5-min Rain = 0
KOD1 220743Z 16017KT 20/15 A2984 RMK A01 T01960150  RH  074%=      5-min Rain = 0
KOD1 220744Z 17016KT 20/15 A2984 RMK A01 T01960150  RH  074%=      5-min Rain = 0
KOD1 220745Z 16015KT 20/15 A2984 RMK A01 T01960150  RH  075%=      5-min Rain = 0
KOD1 220746Z 16017KT 20/15 A2984 RMK A01 T01960150  RH  075%=      5-min Rain = 0
KOD1 220747Z 16016KT 20/15 A2984 RMK A01 T01960150  RH  075%=      5-min Rain = 0
KOD1 220748Z 16016KT 20/15 A2984 RMK A01 T01960150  RH  075%=      5-min Rain = 0
KOD1 220749Z 16016KT 20/15 A2984 RMK A01 T01950150  RH  075%=      5-min Rain = 0
KOD1 220750Z 16015KT 20/15 A2984 RMK A01 T01960150  RH  075%=      5-min Rain = 0
KOD1 220751Z 16015KT 20/15 A2984 RMK A01 T01950150  RH  075%=      5-min Rain = 0
KOD1 220752Z 17015KT 19/15 A2984 RMK A01 T01940150  RH  075%=      5-min Rain = 0
KOD1 220753Z 17017KT 19/15 A2984 RMK A01 T01940150  RH  075%=      5-min Rain = 0
KOD1 220754Z 16016KT 20/15 A2984 RMK A01 T01950150  RH  075%=      5-min Rain = 0
KOD1 220755Z 16017KT 20/15 A2984 RMK A01 T01950150  RH  075%=      5-min Rain = 0
KOD1 220756Z 17016KT 20/15 A2984 RMK A01 T01960150  RH  075%=      5-min Rain = 0
KOD1 220757Z 16016KT 20/15 A2984 RMK A01 T01950150  RH  075%=      5-min Rain = 0
KOD1 220758Z 16016KT 20/15 A2984 RMK A01 T01950150  RH  075%=      5-min Rain = 0
KOD1 220759Z 16015KT 19/15 A2984 RMK A01 T01940150  RH  076%=      5-min Rain = 0
KOD1 220800Z 16016KT 20/15 A2984 RMK A01 T01950150  RH  076%=      5-min Rain = 0
KOD1 220801Z 16016KT 20/15 A2984 RMK A01 T01950150  RH  075%=      5-min Rain = 0
KOD1 220802Z 16016KT 20/15 A2984 RMK A01 T01950150  RH  075%=      5-min Rain = 0
KOD1 220803Z 16016KT 20/15 A2984 RMK A01 T01950150  RH  075%=      5-min Rain = 0
KOD1 220804Z 17016KT 19/15 A2984 RMK A01 T01940150  RH  076%=      5-min Rain = 0
KOD1 220805Z 16017KT 20/15 A2984 RMK A01 T01950151  RH  076%=      5-min Rain = 0
KOD1 220806Z 17017KT 20/15 A2984 RMK A01 T01960151  RH  075%=      5-min Rain = 0
KOD1 220807Z 16016KT 20/15 A2984 RMK A01 T01960151  RH  075%=      5-min Rain = 0
KOD1 220808Z 16016KT 20/15 A2984 RMK A01 T01950151  RH  076%=      5-min Rain = 0
KOD1 220809Z 16016KT 20/15 A2984 RMK A01 T01950151  RH  076%=      5-min Rain = 0
KOD1 220810Z 16016KT 20/15 A2984 RMK A01 T01950151  RH  076%=      5-min Rain = 0
KOD1 220811Z 16016KT 19/15 A2984 RMK A01 T01940151  RH  076%=      5-min Rain = 0
KOD1 220812Z 16015KT 19/15 A2984 RMK A01 T01940151  RH  076%=      5-min Rain = 0
KOD1 220813Z 16017KT 19/15 A2984 RMK A01 T01940151  RH  076%=      5-min Rain = 0
KOD1 220814Z 16017KT 20/15 A2984 RMK A01 T01950151  RH  076%=      5-min Rain = 0
KOD1 220815Z 16017KT 20/15 A2984 RMK A01 T01960151  RH  075%=      5-min Rain = 0
KOD1 220816Z 16016KT 20/15 A2984 RMK A01 T01950151  RH  076%=      5-min Rain = 0
KOD1 220817Z 17016KT 20/15 A2984 RMK A01 T01950151  RH  076%=      5-min Rain = 0
KOD1 220818Z 16016KT 19/15 A2984 RMK A01 T01940151  RH  076%=      5-min Rain = 0
KOD1 220819Z 16016KT 19/15 A2984 RMK A01 T01940151  RH  076%=      5-min Rain = 0
KOD1 220820Z 17016KT 19/15 A2984 RMK A01 T01940151  RH  076%=      5-min Rain = 0
KOD1 220821Z 17015KT 20/15 A2984 RMK A01 T01950151  RH  076%=      5-min Rain = 0
KOD1 220822Z 17016KT 19/15 A2984 RMK A01 T01940151  RH  076%=      5-min Rain = 0
KOD1 220823Z 17016KT 19/15 A2984 RMK A01 T01940151  RH  076%=      5-min Rain = 0
KOD1 220824Z 16016KT 19/15 A2984 RMK A01 T01940151  RH  076%=      5-min Rain = 0
KOD1 220825Z 16016KT 19/15 A2984 RMK A01 T01940152  RH  076%=      5-min Rain = 0
KOD1 220826Z 17018KT 19/15 A2984 RMK A01 T01940151  RH  076%=      5-min Rain = 0
KOD1 220827Z 17016KT 19/15 A2984 RMK A01 T01940151  RH  076%=      5-min Rain = 0
KOD1 220828Z 17017KT 19/15 A2984 RMK A01 T01940152  RH  076%=      5-min Rain = 0
KOD1 220829Z 17016KT 19/15 A2984 RMK A01 T01940152  RH  076%=      5-min Rain = 0
KOD1 220830Z 17016KT 19/15 A2984 RMK A01 T01940151  RH  077%=      5-min Rain = 0
KOD1 220831Z 17016KT 19/15 A2984 RMK A01 T01940152  RH  077%=      5-min Rain = 0
KOD1 220832Z 17017KT 19/15 A2984 RMK A01 T01940152  RH  077%=      5-min Rain = 0
KOD1 220833Z 17017KT 19/15 A2984 RMK A01 T01940152  RH  077%=      5-min Rain = 0
KOD1 220834Z 17016KT 19/15 A2984 RMK A01 T01930151  RH  077%=      5-min Rain = 0
KOD1 220835Z 17017KT 19/15 A2984 RMK A01 T01940152  RH  077%=      5-min Rain = 0
KOD1 220836Z 17015KT 19/15 A2984 RMK A01 T01930152  RH  077%=      5-min Rain = 0
KOD1 220837Z 17016KT 19/15 A2984 RMK A01 T01930152  RH  077%=      5-min Rain = 0
KOD1 220838Z 17017KT 19/15 A2984 RMK A01 T01930151  RH  077%=      5-min Rain = 0
KOD1 220839Z 17016KT 19/15 A2984 RMK A01 T01930152  RH  077%=      5-min Rain = 0
KOD1 220840Z 17016KT 19/15 A2984 RMK A01 T01930152  RH  077%=      5-min Rain = 0
KOD1 220841Z 17016KT 19/15 A2984 RMK A01 T01930152  RH  077%=      5-min Rain = 0
KOD1 220842Z 17017KT 19/15 A2984 RMK A01 T01930152  RH  077%=      5-min Rain = 0
KOD1 220843Z 17015KT 19/15 A2984 RMK A01 T01930152  RH  077%=      5-min Rain = 0
KOD1 220844Z 17019KT 19/15 A2984 RMK A01 T01930152  RH  077%=      5-min Rain = 0
KOD1 220845Z 17018KT 19/15 A2984 RMK A01 T01940152  RH  077%=      5-min Rain = 0
KOD1 220846Z 17017KT 19/15 A2984 RMK A01 T01940152  RH  077%=      5-min Rain = 0
KOD1 220847Z 17018KT 19/15 A2984 RMK A01 T01930152  RH  077%=      5-min Rain = 0
KOD1 220848Z 17016KT 19/15 A2984 RMK A01 T01930152  RH  077%=      5-min Rain = 0
KOD1 220849Z 17016KT 19/15 A2984 RMK A01 T01920152  RH  078%=      5-min Rain = 0
KOD1 220850Z 17016KT 19/15 A2984 RMK A01 T01920152  RH  078%=      5-min Rain = 0
KOD1 220851Z 17017KT 19/15 A2984 RMK A01 T01910152  RH  078%=      5-min Rain = 0
KOD1 220852Z 17017KT 19/15 A2984 RMK A01 T01920152  RH  078%=      5-min Rain = 0
KOD1 220853Z 17016KT 19/15 A2984 RMK A01 T01920152  RH  078%=      5-min Rain = 0
KOD1 220854Z 17017G22KT 19/15 A2984 RMK A01 T01910152  RH  078%=      5-min Rain = 0
KOD1 220855Z 17019KT 19/15 A2984 RMK A01 T01910153  RH  078%=      5-min Rain = 0
KOD1 220856Z 17018KT 19/15 A2984 RMK A01 T01920153  RH  078%=      5-min Rain = 0
KOD1 220857Z 17018KT 19/15 A2984 RMK A01 T01920153  RH  078%=      5-min Rain = 0
KOD1 220858Z 17018G23KT 19/15 A2984 RMK A01 T01920152  RH  078%=      5-min Rain = 0
KOD1 220859Z 17016KT 19/15 A2984 RMK A01 T01920153  RH  078%=      5-min Rain = 0
KOD1 220900Z 17018KT 19/15 A2984 RMK A01 T01910152  RH  078%=      5-min Rain = 0
KOD1 220901Z 18017KT 19/15 A2984 RMK A01 T01910153  RH  078%=      5-min Rain = 0
KOD1 220902Z 18016KT 19/15 A2984 RMK A01 T01910152  RH  078%=      5-min Rain = 0
KOD1 220903Z 17018KT 19/15 A2984 RMK A01 T01910153  RH  079%=      5-min Rain = 0
KOD1 220904Z 17017KT 19/15 A2984 RMK A01 T01910153  RH  078%=      5-min Rain = 0
KOD1 220905Z 18017KT 19/15 A2984 RMK A01 T01910153  RH  079%=      5-min Rain = 0
KOD1 220906Z 18016KT 19/15 A2984 RMK A01 T01900153  RH  079%=      5-min Rain = 0
KOD1 220907Z 18015KT 19/15 A2984 RMK A01 T01900153  RH  079%=      5-min Rain = 0
KOD1 220908Z 18016KT 19/15 A2984 RMK A01 T01890153  RH  079%=      5-min Rain = 0
KOD1 220909Z 17017KT 19/15 A2984 RMK A01 T01890153  RH  079%=      5-min Rain = 0
KOD1 220910Z 18015KT 19/15 A2984 RMK A01 T01900153  RH  079%=      5-min Rain = 0
KOD1 220911Z 18016KT 19/15 A2984 RMK A01 T01900153  RH  079%=      5-min Rain = 0
KOD1 220912Z 17015KT 19/15 A2984 RMK A01 T01900153  RH  079%=      5-min Rain = 0
KOD1 220913Z 17016KT 19/15 A2984 RMK A01 T01900153  RH  079%=      5-min Rain = 0
KOD1 220914Z 17016KT 19/15 A2984 RMK A01 T01900153  RH  079%=      5-min Rain = 0
KOD1 220915Z 18015KT 19/15 A2984 RMK A01 T01900153  RH  079%=      5-min Rain = 0
KOD1 220916Z 17016KT 19/15 A2984 RMK A01 T01900153  RH  079%=      5-min Rain = 0
KOD1 220917Z 18016KT 19/15 A2984 RMK A01 T01900153  RH  079%=      5-min Rain = 0
KOD1 220918Z 18016KT 19/15 A2984 RMK A01 T01900153  RH  079%=      5-min Rain = 0
KOD1 220919Z 18014KT 19/15 A2984 RMK A01 T01900153  RH  079%=      5-min Rain = 0
KOD1 220920Z 18015KT 19/15 A2984 RMK A01 T01890153  RH  079%=      5-min Rain = 0
KOD1 220921Z 18015KT 19/15 A2984 RMK A01 T01890153  RH  079%=      5-min Rain = 0
KOD1 220922Z 18015KT 19/15 A2984 RMK A01 T01900153  RH  079%=      5-min Rain = 0
KOD1 220923Z 18015KT 19/15 A2984 RMK A01 T01900153  RH  079%=      5-min Rain = 0
KOD1 220924Z 18016KT 19/15 A2984 RMK A01 T01900153  RH  079%=      5-min Rain = 0
KOD1 220925Z 18014KT 19/15 A2984 RMK A01 T01910153  RH  079%=      5-min Rain = 0
KOD1 220926Z 18017KT 19/15 A2984 RMK A01 T01900153  RH  079%=      5-min Rain = 0
KOD1 220927Z 18016KT 19/15 A2984 RMK A01 T01900153  RH  079%=      5-min Rain = 0
KOD1 220928Z 18016KT 19/15 A2984 RMK A01 T01900153  RH  079%=      5-min Rain = 0
KOD1 220929Z 18016KT 19/15 A2984 RMK A01 T01900153  RH  079%=      5-min Rain = 0
KOD1 220930Z 18015KT 19/15 A2984 RMK A01 T01890153  RH  079%=      5-min Rain = 0
KOD1 220931Z 18016KT 19/15 A2984 RMK A01 T01890153  RH  080%=      5-min Rain = 0
KOD1 220932Z 18016KT 19/15 A2984 RMK A01 T01890153  RH  080%=      5-min Rain = 0
KOD1 220933Z 18016KT 19/15 A2984 RMK A01 T01890153  RH  080%=      5-min Rain = 0
KOD1 220934Z 18015KT 19/15 A2984 RMK A01 T01890153  RH  080%=      5-min Rain = 0
KOD1 220935Z 18017KT 19/15 A2984 RMK A01 T01880153  RH  080%=      5-min Rain = 0
KOD1 220936Z 18017KT 19/15 A2984 RMK A01 T01890153  RH  080%=      5-min Rain = 0
KOD1 220937Z 17016KT 19/15 A2984 RMK A01 T01890153  RH  080%=      5-min Rain = 0
KOD1 220938Z 17018KT 19/15 A2984 RMK A01 T01890153  RH  080%=      5-min Rain = 0
KOD1 220939Z 17016KT 19/15 A2984 RMK A01 T01900153  RH  079%=      5-min Rain = 0
KOD1 220940Z 17016KT 19/15 A2984 RMK A01 T01890153  RH  080%=      5-min Rain = 0
KOD1 220941Z 17016KT 19/15 A2984 RMK A01 T01890153  RH  080%=      5-min Rain = 0
KOD1 220942Z 18016KT 19/15 A2984 RMK A01 T01890154  RH  080%=      5-min Rain = 0
KOD1 220943Z 17015KT 19/15 A2984 RMK A01 T01880154  RH  080%=      5-min Rain = 0
KOD1 220944Z 18015KT 19/15 A2984 RMK A01 T01880154  RH  080%=      5-min Rain = 0
KOD1 220945Z 17016KT 19/15 A2984 RMK A01 T01880154  RH  081%=      5-min Rain = 0
KOD1 220946Z 18016KT 19/15 A2984 RMK A01 T01880154  RH  081%=      5-min Rain = 0
KOD1 220947Z 17015KT 19/15 A2984 RMK A01 T01880154  RH  081%=      5-min Rain = 0
KOD1 220948Z 17017KT 19/15 A2984 RMK A01 T01880154  RH  081%=      5-min Rain = 0
KOD1 220949Z 17016KT 19/15 A2984 RMK A01 T01880154  RH  080%=      5-min Rain = 0
KOD1 220950Z 17016KT 19/15 A2984 RMK A01 T01880154  RH  081%=      5-min Rain = 0
KOD1 220951Z 17015KT 19/15 A2984 RMK A01 T01870154  RH  081%=      5-min Rain = 0
KOD1 220952Z 17016KT 19/15 A2984 RMK A01 T01860153  RH  081%=      5-min Rain = 0
KOD1 220953Z 17016KT 19/15 A2984 RMK A01 T01860154  RH  081%=      5-min Rain = 0
KOD1 220954Z 17016KT 19/15 A2984 RMK A01 T01860154  RH  081%=      5-min Rain = 0
KOD1 220955Z 18015KT 19/15 A2985 RMK A01 T01860154  RH  081%=      5-min Rain = 0
KOD1 220956Z 18016KT 19/15 A2985 RMK A01 T01860154  RH  082%=      5-min Rain = 0
KOD1 220957Z 17016KT 19/15 A2985 RMK A01 T01860154  RH  082%=      5-min Rain = 0
KOD1 220958Z 17016KT 19/15 A2985 RMK A01 T01860154  RH  082%=      5-min Rain = 0
KOD1 220959Z 18016KT 19/15 A2985 RMK A01 T01860154  RH  082%=      5-min Rain = 0
KOD1 221000Z 18015KT 19/15 A2985 RMK A01 T01860154  RH  082%=      5-min Rain = 0
KOD1 221001Z 17016KT 19/15 A2985 RMK A01 T01860154  RH  082%=      5-min Rain = 0
KOD1 221002Z 17015KT 19/15 A2985 RMK A01 T01860154  RH  082%=      5-min Rain = 0
KOD1 221003Z 17015KT 19/15 A2985 RMK A01 T01850154  RH  082%=      5-min Rain = 0
KOD1 221004Z 18015KT 19/15 A2985 RMK A01 T01850154  RH  082%=      5-min Rain = 0
KOD1 221005Z 18015KT 19/15 A2985 RMK A01 T01850154  RH  082%=      5-min Rain = 0
KOD1 221006Z 18014KT 19/15 A2985 RMK A01 T01850154  RH  082%=      5-min Rain = 0
KOD1 221007Z 17014KT 19/15 A2985 RMK A01 T01850154  RH  082%=      5-min Rain = 0
KOD1 221008Z 17014KT 18/15 A2985 RMK A01 T01840154  RH  082%=      5-min Rain = 0
KOD1 221009Z 17014KT 18/15 A2985 RMK A01 T01840154  RH  083%=      5-min Rain = 0
KOD1 221010Z 17014KT 18/15 A2985 RMK A01 T01840154  RH  083%=      5-min Rain = 0
KOD1 221011Z 17016KT 18/15 A2985 RMK A01 T01840154  RH  083%=      5-min Rain = 0
KOD1 221012Z 17015KT 19/16 A2985 RMK A01 T01850155  RH  082%=      5-min Rain = 0
KOD1 221013Z 17014KT 19/15 A2985 RMK A01 T01850154  RH  082%=      5-min Rain = 0
KOD1 221014Z 17015KT 19/15 A2985 RMK A01 T01850154  RH  082%=      5-min Rain = 0
KOD1 221015Z 17016KT 19/16 A2985 RMK A01 T01850155  RH  083%=      5-min Rain = 0
KOD1 221016Z 17013KT 19/16 A2985 RMK A01 T01850155  RH  082%=      5-min Rain = 0
KOD1 221017Z 17015KT 18/15 A2985 RMK A01 T01840154  RH  083%=      5-min Rain = 0
KOD1 221018Z 17014KT 18/16 A2985 RMK A01 T01840155  RH  083%=      5-min Rain = 0
KOD1 221019Z 17014KT 18/15 A2985 RMK A01 T01840154  RH  083%=      5-min Rain = 0
KOD1 221020Z 17014G19KT 18/16 A2985 RMK A01 T01830155  RH  083%=      5-min Rain = 0
KOD1 221021Z 17015KT 18/16 A2985 RMK A01 T01840155  RH  083%=      5-min Rain = 0
KOD1 221022Z 17014KT 18/16 A2985 RMK A01 T01840155  RH  083%=      5-min Rain = 0
KOD1 221023Z 17014KT 18/16 A2985 RMK A01 T01840155  RH  083%=      5-min Rain = 0
KOD1 221024Z 17015KT 18/16 A2985 RMK A01 T01840155  RH  083%=      5-min Rain = 0
KOD1 221025Z 17013KT 18/16 A2986 RMK A01 T01840155  RH  083%=      5-min Rain = 0
KOD1 221026Z 17014KT 18/16 A2986 RMK A01 T01830155  RH  084%=      5-min Rain = 0
KOD1 221027Z 17013KT 18/16 A2986 RMK A01 T01820155  RH  084%=      5-min Rain = 0
KOD1 221028Z 17012KT 18/16 A2986 RMK A01 T01820155  RH  084%=      5-min Rain = 0
KOD1 221029Z 17013KT 18/16 A2986 RMK A01 T01820155  RH  084%=      5-min Rain = 0
KOD1 221030Z 17012KT 18/16 A2986 RMK A01 T01830155  RH  084%=      5-min Rain = 0
KOD1 221031Z 17012KT 18/16 A2986 RMK A01 T01820155  RH  084%=      5-min Rain = 0
KOD1 221032Z 17011KT 18/16 A2986 RMK A01 T01830155  RH  084%=      5-min Rain = 0
KOD1 221033Z 17011KT 18/16 A2986 RMK A01 T01830155  RH  084%=      5-min Rain = 0
KOD1 221034Z 17010KT 18/16 A2986 RMK A01 T01830155  RH  084%=      5-min Rain = 0
KOD1 221035Z 16010KT 18/16 A2986 RMK A01 T01820155  RH  084%=      5-min Rain = 0
KOD1 221036Z 16010KT 18/16 A2986 RMK A01 T01810155  RH  085%=      5-min Rain = 0
KOD1 221037Z 16011KT 18/16 A2986 RMK A01 T01810155  RH  085%=      5-min Rain = 0
KOD1 221038Z 16011KT 18/16 A2987 RMK A01 T01810155  RH  085%=      5-min Rain = 0
KOD1 221039Z 16011KT 18/16 A2987 RMK A01 T01810155  RH  085%=      5-min Rain = 0
KOD1 221040Z 16011KT 18/16 A2987 RMK A01 T01820155  RH  084%=      5-min Rain = 0
KOD1 221041Z 16010KT 18/16 A2987 RMK A01 T01820155  RH  084%=      5-min Rain = 0
KOD1 221042Z 15008KT 18/16 A2987 RMK A01 T01820156  RH  085%=      5-min Rain = 0
KOD1 221043Z 15008KT 18/16 A2987 RMK A01 T01820155  RH  085%=      5-min Rain = 0
KOD1 221044Z 15007KT 18/16 A2987 RMK A01 T01820156  RH  085%=      5-min Rain = 0
KOD1 221045Z 15008KT 18/16 A2987 RMK A01 T01820156  RH  085%=      5-min Rain = 0
KOD1 221046Z 13007KT 18/16 A2987 RMK A01 T01820156  RH  085%=      5-min Rain = 0
KOD1 221047Z 14005KT 18/16 A2987 RMK A01 T01820156  RH  085%=      5-min Rain = 0
KOD1 221048Z 14007KT 18/16 A2988 RMK A01 T01820156  RH  085%=      5-min Rain = 0
KOD1 221049Z 13005KT 18/16 A2988 RMK A01 T01820156  RH  085%=      5-min Rain = 0
KOD1 221050Z 11003KT 18/16 A2989 RMK A01 T01820157  RH  085%=      5-min Rain = 0
KOD1 221051Z 08003KT 18/16 A2989 RMK A01 T01820156  RH  085%=      5-min Rain = 0
KOD1 221052Z 03003KT 18/16 A2989 RMK A01 T01820156  RH  085%=      5-min Rain = 0
KOD1 221053Z 35003KT 18/16 A299 RMK A01 T01820156  RH  085%=      5-min Rain = 0
KOD1 221054Z 34006KT 18/16 A299 RMK A01 T01800155  RH  085%=      5-min Rain = 0
KOD1 221055Z 34008KT 18/15 A2991 RMK A01 T01790154  RH  085%=      5-min Rain = 0
KOD1 221056Z 34008KT 18/15 A2991 RMK A01 T01770154  RH  086%=      5-min Rain = 0
KOD1 221057Z 34008KT 18/15 A2991 RMK A01 T01760154  RH  087%=      5-min Rain = 0
KOD1 221058Z 34006KT 18/15 A2991 RMK A01 T01750154  RH  087%=      5-min Rain = 0
KOD1 221059Z 35004KT 17/15 A2991 RMK A01 T01740153  RH  088%=      5-min Rain = 0
KOD1 221100Z 02002KT 17/15 A299 RMK A01 T01730153  RH  088%=      5-min Rain = 0
KOD1 221101Z 10002KT 17/15 A299 RMK A01 T01730153  RH  088%=      5-min Rain = 0
KOD1 221102Z 10003KT 17/15 A299 RMK A01 T01720152  RH  088%=      5-min Rain = 0
KOD1 221103Z 09003KT 17/15 A299 RMK A01 T01710151  RH  088%=      5-min Rain = 0
KOD1 221104Z 09002KT 17/15 A299 RMK A01 T01700151  RH  089%=      5-min Rain = 0
KOD1 221105Z 05002KT 17/15 A2991 RMK A01 T01700151  RH  089%=      5-min Rain = 0
KOD1 221106Z 36003KT 17/15 A2991 RMK A01 T01680149  RH  089%=      5-min Rain = 0
KOD1 221107Z 34005KT 17/15 A2992 RMK A01 T01670149  RH  089%=      5-min Rain = 0
KOD1 221108Z 34007KT 17/15 A2992 RMK A01 T01660150  RH  090%=      5-min Rain = 0
KOD1 221109Z 35007KT 17/15 A2992 RMK A01 T01670151  RH  091%=      5-min Rain = 0
KOD1 221110Z 00006KT 17/15 A2992 RMK A01 T01670151  RH  090%=      5-min Rain = 0
KOD1 221111Z 02004KT 17/15 A2991 RMK A01 T01670151  RH  090%=      5-min Rain = 0
KOD1 221112Z 04003KT 17/15 A2991 RMK A01 T01670150  RH  090%=      5-min Rain = 0
KOD1 221113Z 05003KT 17/15 A2991 RMK A01 T01660149  RH  090%=      5-min Rain = 0
KOD1 221114Z 06003KT 17/15 A2991 RMK A01 T01660150  RH  090%=      5-min Rain = 0
KOD1 221115Z 05002KT 17/15 A2991 RMK A01 T01660150  RH  090%=      5-min Rain = 0
KOD1 221116Z 02002KT 17/15 A2991 RMK A01 T01660151  RH  091%=      5-min Rain = 0
KOD1 221117Z 00003KT 17/15 A2991 RMK A01 T01670151  RH  091%=      5-min Rain = 0
KOD1 221118Z 35003KT 17/15 A2991 RMK A01 T01670151  RH  090%=      5-min Rain = 0
KOD1 221119Z 34002KT 17/15 A2991 RMK A01 T01670151  RH  090%=      5-min Rain = 0
KOD1 221120Z 01001KT 17/15 A2991 RMK A01 T01670151  RH  090%=      5-min Rain = 0
KOD1 221121Z 11001KT 17/15 A2991 RMK A01 T01680152  RH  090%=      5-min Rain = 0
KOD1 221122Z 13003KT 17/15 A2991 RMK A01 T01690153  RH  090%=      5-min Rain = 0
KOD1 221123Z 14005KT 17/15 A2991 RMK A01 T01680149  RH  089%=      5-min Rain = 0
KOD1 221124Z 14006KT 17/15 A2991 RMK A01 T01670149  RH  089%=      5-min Rain = 0
KOD1 221125Z 14007KT 17/15 A2991 RMK A01 T01670151  RH  090%=      5-min Rain = 0
KOD1 221126Z 14006KT 17/15 A2991 RMK A01 T01660150  RH  090%=      5-min Rain = 0
KOD1 221127Z 13004KT 17/15 A2991 RMK A01 T01650149  RH  090%=      5-min Rain = 0
KOD1 221128Z 12003KT 16/15 A2992 RMK A01 T01640148  RH  090%=      5-min Rain = 0
KOD1 221129Z 10002KT 16/15 A2992 RMK A01 T01640149  RH  091%=      5-min Rain = 0
KOD1 221130Z 05002KT 16/15 A2992 RMK A01 T01640150  RH  091%=      5-min Rain = 0
KOD1 221131Z 03002KT 16/15 A2993 RMK A01 T01640150  RH  091%=      5-min Rain = 0
KOD1 221132Z 04002KT 16/15 A2993 RMK A01 T01640149  RH  091%=      5-min Rain = 0
KOD1 221133Z 06001KT 16/15 A2992 RMK A01 T01630148  RH  091%=      5-min Rain = 0
KOD1 221134Z 10003KT 16/15 A2992 RMK A01 T01620147  RH  091%=      5-min Rain = 0
KOD1 221135Z 12004KT 16/15 A2992 RMK A01 T01610146  RH  091%=      5-min Rain = 0
KOD1 221136Z 13005KT 16/15 A2992 RMK A01 T01610148  RH  092%=      5-min Rain = 0
KOD1 221137Z 13006KT 16/15 A2991 RMK A01 T01620149  RH  092%=      5-min Rain = 0
KOD1 221138Z 12005KT 16/15 A2992 RMK A01 T01620148  RH  092%=      5-min Rain = 0
KOD1 221139Z 12004KT 16/15 A2992 RMK A01 T01610148  RH  092%=      5-min Rain = 0
KOD1 221140Z 11004KT 16/15 A2992 RMK A01 T01610148  RH  092%=      5-min Rain = 0
KOD1 221141Z 09003KT 16/15 A2993 RMK A01 T01600148  RH  092%=      5-min Rain = 0
KOD1 221142Z 06002KT 16/15 A2993 RMK A01 T01600148  RH  092%=      5-min Rain = 0
KOD1 221143Z 07002KT 16/15 A2993 RMK A01 T01600148  RH  092%=      5-min Rain = 0
KOD1 221144Z 07002KT 16/15 A2993 RMK A01 T01600147  RH  092%=      5-min Rain = 0
KOD1 221145Z 09003KT 16/15 A2993 RMK A01 T01590146  RH  092%=      5-min Rain = 0
KOD1 221146Z 11004KT 16/14 A2992 RMK A01 T01580144  RH  092%=      5-min Rain = 0
KOD1 221147Z 11005KT 16/15 A2992 RMK A01 T01570146  RH  093%=      5-min Rain = 0
KOD1 221148Z 12005KT 16/15 A2992 RMK A01 T01580146  RH  093%=      5-min Rain = 0
KOD1 221149Z 12005KT 16/15 A2991 RMK A01 T01570146  RH  093%=      5-min Rain = 0
KOD1 221150Z 11005KT 16/15 A2992 RMK A01 T01570146  RH  093%=      5-min Rain = 0
KOD1 221151Z 12005KT 16/15 A2992 RMK A01 T01570146  RH  093%=      5-min Rain = 0
KOD1 221152Z 11005KT 16/15 A2992 RMK A01 T01560146  RH  093%=      5-min Rain = 0
KOD1 221153Z 12005KT 16/15 A2992 RMK A01 T01560146  RH  094%=      5-min Rain = 0
KOD1 221154Z 11004KT 16/15 A2992 RMK A01 T01570147  RH  094%=      5-min Rain = 0
KOD1 221155Z 09004KT 16/15 A2993 RMK A01 T01570147  RH  094%=      5-min Rain = 0
KOD1 221156Z 07003KT 16/15 A2993 RMK A01 T01560146  RH  094%=      5-min Rain = 0
KOD1 221157Z 06004KT 16/15 A2993 RMK A01 T01570147  RH  094%=      5-min Rain = 0
KOD1 221158Z 07004KT 16/15 A2993 RMK A01 T01570146  RH  094%=      5-min Rain = 0
KOD1 221159Z 07004KT 16/15 A2993 RMK A01 T01560145  RH  093%=      5-min Rain = 0
KOD1 221200Z 08004KT 16/14 A2993 RMK A01 T01550144  RH  093%=      5-min Rain = 0
KOD1 221201Z 09005KT 16/15 A2993 RMK A01 T01550145  RH  094%=      5-min Rain = 0
KOD1 221202Z 09006KT 16/15 A2993 RMK A01 T01550145  RH  094%=      5-min Rain = 0
KOD1 221203Z 10007KT 16/15 A2993 RMK A01 T01550145  RH  094%=      5-min Rain = 0
KOD1 221204Z 10007KT 16/15 A2993 RMK A01 T01560146  RH  094%=      5-min Rain = 0
KOD1 221205Z 11008KT 16/15 A2993 RMK A01 T01560146  RH  094%=      5-min Rain = 0
KOD1 221206Z 11007KT 16/15 A2993 RMK A01 T01560146  RH  094%=      5-min Rain = 0
KOD1 221207Z 11007KT 16/15 A2993 RMK A01 T01560146  RH  094%=      5-min Rain = 0
KOD1 221208Z 10006KT 16/15 A2993 RMK A01 T01560147  RH  094%=      5-min Rain = 0
KOD1 221209Z 10005KT 16/15 A2994 RMK A01 T01570148  RH  094%=      5-min Rain = 0
KOD1 221210Z 10004KT 16/15 A2994 RMK A01 T01570148  RH  094%=      5-min Rain = 0
KOD1 221211Z 12004KT 16/15 A2994 RMK A01 T01580148  RH  094%=      5-min Rain = 0
KOD1 221212Z 13005KT 16/15 A2994 RMK A01 T01580149  RH  094%=      5-min Rain = 0
KOD1 221213Z 14007KT 16/15 A2994 RMK A01 T01590149  RH  094%=      5-min Rain = 0
KOD1 221214Z 14008KT 16/15 A2993 RMK A01 T01590150  RH  094%=      5-min Rain = 0
KOD1 221215Z 15009KT 16/15 A2993 RMK A01 T01600150  RH  094%=      5-min Rain = 0
KOD1 221216Z 15011KT 16/15 A2993 RMK A01 T01610152  RH  094%=      5-min Rain = 0
KOD1 221217Z 15011KT 16/15 A2993 RMK A01 T01630153  RH  094%=      5-min Rain = 0
KOD1 221218Z 15010KT 16/15 A2993 RMK A01 T01630152  RH  093%=      5-min Rain = 0
KOD1 221219Z 15010KT 16/15 A2993 RMK A01 T01640153  RH  093%=      5-min Rain = 0
KOD1 221220Z 15010KT 17/15 A2993 RMK A01 T01650153  RH  093%=      5-min Rain = 0
KOD1 221221Z 15009KT 17/15 A2993 RMK A01 T01650153  RH  093%=      5-min Rain = 0
KOD1 221222Z 15009KT 17/15 A2993 RMK A01 T01660154  RH  093%=      5-min Rain = 0
KOD1 221223Z 15009KT 17/16 A2993 RMK A01 T01670155  RH  093%=      5-min Rain = 0
KOD1 221224Z 15009KT 17/16 A2993 RMK A01 T01680155  RH  092%=      5-min Rain = 0
KOD1 221225Z 15009KT 17/16 A2993 RMK A01 T01690155  RH  092%=      5-min Rain = 0
KOD1 221226Z 15009KT 17/16 A2993 RMK A01 T01700155  RH  091%=      5-min Rain = 0
KOD1 221227Z 15009KT 17/16 A2994 RMK A01 T01700155  RH  091%=      5-min Rain = 0
KOD1 221228Z 14008KT 17/16 A2994 RMK A01 T01700156  RH  091%=      5-min Rain = 0
KOD1 221229Z 14008KT 17/16 A2994 RMK A01 T01700156  RH  091%=      5-min Rain = 0
KOD1 221230Z 14008KT 17/16 A2994 RMK A01 T01710156  RH  091%=      5-min Rain = 0
KOD1 221231Z 13007KT 17/16 A2994 RMK A01 T01720157  RH  091%=      5-min Rain = 0
KOD1 221232Z 13007KT 17/16 A2994 RMK A01 T01720157  RH  091%=      5-min Rain = 0
KOD1 221233Z 13006KT 17/16 A2994 RMK A01 T01720157  RH  091%=      5-min Rain = 0
KOD1 221234Z 12007KT 17/16 A2994 RMK A01 T01720157  RH  091%=      5-min Rain = 0
KOD1 221235Z 13007KT 17/16 A2994 RMK A01 T01720157  RH  091%=      5-min Rain = 0
KOD1 221236Z 13007KT 17/16 A2994 RMK A01 T01720157  RH  091%=      5-min Rain = 0
KOD1 221237Z 13007KT 17/16 A2994 RMK A01 T01720157  RH  091%=      5-min Rain = 0
KOD1 221238Z 12009KT 17/16 A2994 RMK A01 T01720157  RH  091%=      5-min Rain = 0
KOD1 221239Z 12008KT 17/16 A2994 RMK A01 T01720158  RH  091%=      5-min Rain = 0
KOD1 221240Z 13008KT 17/16 A2994 RMK A01 T01730158  RH  091%=      5-min Rain = 0
KOD1 221241Z 13008KT 17/16 A2994 RMK A01 T01730158  RH  091%=      5-min Rain = 0
KOD1 221242Z 13007KT 17/16 A2994 RMK A01 T01730158  RH  091%=      5-min Rain = 0
KOD1 221243Z 12007KT 17/16 A2995 RMK A01 T01730158  RH  091%=      5-min Rain = 0
KOD1 221244Z 13006KT 17/16 A2995 RMK A01 T01730158  RH  091%=      5-min Rain = 0
KOD1 221245Z 13007KT 17/16 A2994 RMK A01 T01740158  RH  090%=      5-min Rain = 0
KOD1 221246Z 13007KT 17/16 A2994 RMK A01 T01730157  RH  090%=      5-min Rain = 0
KOD1 221247Z 13008KT 17/16 A2994 RMK A01 T01730157  RH  090%=      5-min Rain = 0
KOD1 221248Z 13008KT 17/16 A2994 RMK A01 T01720157  RH  091%=      5-min Rain = 0
KOD1 221249Z 13008KT 17/16 A2994 RMK A01 T01730157  RH  091%=      5-min Rain = 0
KOD1 221250Z 13009KT 17/16 A2994 RMK A01 T01730158  RH  091%=      5-min Rain = 0
KOD1 221251Z 13009KT 17/16 A2994 RMK A01 T01730158  RH  090%=      5-min Rain = 0
KOD1 221252Z 13009KT 17/16 A2994 RMK A01 T01740158  RH  090%=      5-min Rain = 0
KOD1 221253Z 14009KT 17/16 A2994 RMK A01 T01740157  RH  090%=      5-min Rain = 0
KOD1 221254Z 14009KT 17/16 A2994 RMK A01 T01740158  RH  090%=      5-min Rain = 0
KOD1 221255Z 14009KT 17/16 A2994 RMK A01 T01740158  RH  090%=      5-min Rain = 0
KOD1 221256Z 14008KT 17/16 A2994 RMK A01 T01740158  RH  090%=      5-min Rain = 0
KOD1 221257Z 14009KT 17/16 A2994 RMK A01 T01740158  RH  091%=      5-min Rain = 0
KOD1 221258Z 13008KT 17/16 A2994 RMK A01 T01740158  RH  091%=      5-min Rain = 0
KOD1 221259Z 13008KT 17/16 A2994 RMK A01 T01740158  RH  091%=      5-min Rain = 0
KOD1 221300Z 13007KT 17/16 A2994 RMK A01 T01740159  RH  091%=      5-min Rain = 0
KOD1 221301Z 13008KT 17/16 A2995 RMK A01 T01740159  RH  091%=      5-min Rain = 0
KOD1 221302Z 13009KT 17/16 A2995 RMK A01 T01740159  RH  091%=      5-min Rain = 0
KOD1 221303Z 13009KT 17/16 A2995 RMK A01 T01740159  RH  091%=      5-min Rain = 0
KOD1 221304Z 13010KT 18/16 A2995 RMK A01 T01750159  RH  091%=      5-min Rain = 0
KOD1 221305Z 13010KT 18/16 A2995 RMK A01 T01750159  RH  090%=      5-min Rain = 0
KOD1 221306Z 13009KT 18/16 A2995 RMK A01 T01750159  RH  090%=      5-min Rain = 0
KOD1 221307Z 13009KT 18/16 A2995 RMK A01 T01760160  RH  090%=      5-min Rain = 0
KOD1 221308Z 13011KT 18/16 A2995 RMK A01 T01760160  RH  090%=      5-min Rain = 0
KOD1 221309Z 13010KT 18/16 A2995 RMK A01 T01760160  RH  090%=      5-min Rain = 0
KOD1 221310Z 13009KT 18/16 A2995 RMK A01 T01760160  RH  090%=      5-min Rain = 0
KOD1 221311Z 13010KT 18/16 A2995 RMK A01 T01760160  RH  090%=      5-min Rain = 0
KOD1 221312Z 13011KT 18/16 A2995 RMK A01 T01760160  RH  090%=      5-min Rain = 0
KOD1 221313Z 13011KT 18/16 A2995 RMK A01 T01760159  RH  090%=      5-min Rain = 0
KOD1 221314Z 13011KT 18/16 A2995 RMK A01 T01760159  RH  090%=      5-min Rain = 0
KOD1 221315Z 13011KT 18/16 A2995 RMK A01 T01770160  RH  090%=      5-min Rain = 0
KOD1 221316Z 14011KT 18/16 A2995 RMK A01 T01770160  RH  090%=      5-min Rain = 0
KOD1 221317Z 14009KT 18/16 A2995 RMK A01 T01770160  RH  090%=      5-min Rain = 0
KOD1 221318Z 14009KT 18/16 A2995 RMK A01 T01770160  RH  090%=      5-min Rain = 0
KOD1 221319Z 14009KT 18/16 A2995 RMK A01 T01770160  RH  090%=      5-min Rain = 0
KOD1 221320Z 14010KT 18/16 A2995 RMK A01 T01780161  RH  090%=      5-min Rain = 0
KOD1 221321Z 14009KT 18/16 A2995 RMK A01 T01780161  RH  090%=      5-min Rain = 0
KOD1 221322Z 14010KT 18/16 A2995 RMK A01 T01780161  RH  090%=      5-min Rain = 0
KOD1 221323Z 14011KT 18/16 A2995 RMK A01 T01780160  RH  090%=      5-min Rain = 0
KOD1 221324Z 15009KT 18/16 A2995 RMK A01 T01780161  RH  090%=      5-min Rain = 0
KOD1 221325Z 14009KT 18/16 A2995 RMK A01 T01790161  RH  090%=      5-min Rain = 0
KOD1 221326Z 14008KT 18/16 A2995 RMK A01 T01790161  RH  089%=      5-min Rain = 0
KOD1 221327Z 15009KT 18/16 A2995 RMK A01 T01800162  RH  089%=      5-min Rain = 0
KOD1 221328Z 14009KT 18/16 A2995 RMK A01 T01800162  RH  089%=      5-min Rain = 0
KOD1 221329Z 15009KT 18/16 A2995 RMK A01 T01800162  RH  089%=      5-min Rain = 0
KOD1 221330Z 14011KT 18/16 A2995 RMK A01 T01810162  RH  089%=      5-min Rain = 0
KOD1 221331Z 14009KT 18/16 A2995 RMK A01 T01810161  RH  088%=      5-min Rain = 0
KOD1 221332Z 14009KT 18/16 A2995 RMK A01 T01810162  RH  089%=      5-min Rain = 0
KOD1 221333Z 14010KT 18/16 A2995 RMK A01 T01810161  RH  088%=      5-min Rain = 0
KOD1 221334Z 14010KT 18/16 A2995 RMK A01 T01800161  RH  089%=      5-min Rain = 0
KOD1 221335Z 14010KT 18/16 A2995 RMK A01 T01800161  RH  089%=      5-min Rain = 0
KOD1 221336Z 14010KT 18/16 A2995 RMK A01 T01800161  RH  089%=      5-min Rain = 0
KOD1 221337Z 14009KT 18/16 A2995 RMK A01 T01810162  RH  089%=      5-min Rain = 0
KOD1 221338Z 14010KT 18/16 A2995 RMK A01 T01810162  RH  089%=      5-min Rain = 0
KOD1 221339Z 14010KT 18/16 A2995 RMK A01 T01810162  RH  089%=      5-min Rain = 0
KOD1 221340Z 14010KT 18/16 A2995 RMK A01 T01810162  RH  089%=      5-min Rain = 0
KOD1 221341Z 15010KT 18/16 A2995 RMK A01 T01810162  RH  088%=      5-min Rain = 0
KOD1 221342Z 15010KT 18/16 A2995 RMK A01 T01820163  RH  089%=      5-min Rain = 0
KOD1 221343Z 15008KT 18/16 A2995 RMK A01 T01830163  RH  088%=      5-min Rain = 0
KOD1 221344Z 15008KT 18/16 A2995 RMK A01 T01840164  RH  088%=      5-min Rain = 0
KOD1 221345Z 15011KT 18/16 A2995 RMK A01 T01840164  RH  088%=      5-min Rain = 0
KOD1 221346Z 15012KT 19/16 A2995 RMK A01 T01850164  RH  087%=      5-min Rain = 0
KOD1 221347Z 15012KT 19/16 A2995 RMK A01 T01850163  RH  087%=      5-min Rain = 0
KOD1 221348Z 15012KT 19/16 A2995 RMK A01 T01850163  RH  087%=      5-min Rain = 0
KOD1 221349Z 15012KT 19/16 A2995 RMK A01 T01860163  RH  087%=      5-min Rain = 0
KOD1 221350Z 15011KT 19/16 A2995 RMK A01 T01860164  RH  087%=      5-min Rain = 0
KOD1 221351Z 15012KT 19/16 A2995 RMK A01 T01870163  RH  086%=      5-min Rain = 0
KOD1 221352Z 15012KT 19/16 A2995 RMK A01 T01870164  RH  086%=      5-min Rain = 0
KOD1 221353Z 15010KT 19/16 A2995 RMK A01 T01860163  RH  086%=      5-min Rain = 0
KOD1 221354Z 15010KT 19/16 A2995 RMK A01 T01870164  RH  087%=      5-min Rain = 0
KOD1 221355Z 15010KT 19/16 A2995 RMK A01 T01870164  RH  087%=      5-min Rain = 0
KOD1 221356Z 14010KT 19/16 A2995 RMK A01 T01870164  RH  086%=      5-min Rain = 0
KOD1 221357Z 15010KT 19/16 A2995 RMK A01 T01880164  RH  086%=      5-min Rain = 0
KOD1 221358Z 15010KT 19/16 A2995 RMK A01 T01880164  RH  086%=      5-min Rain = 0
KOD1 221359Z 15010KT 19/16 A2995 RMK A01 T01880164  RH  086%=      5-min Rain = 0
KOD1 221400Z 14010KT 19/16 A2995 RMK A01 T01880164  RH  086%=      5-min Rain = 0
KOD1 221401Z 15009KT 19/16 A2995 RMK A01 T01880164  RH  086%=      5-min Rain = 0
KOD1 221402Z 15012KT 19/16 A2996 RMK A01 T01880164  RH  086%=      5-min Rain = 0
KOD1 221403Z 15013KT 19/16 A2996 RMK A01 T01880164  RH  086%=      5-min Rain = 0
KOD1 221404Z 15013KT 19/16 A2996 RMK A01 T01880163  RH  086%=      5-min Rain = 0
KOD1 221405Z 15011KT 19/16 A2996 RMK A01 T01880164  RH  086%=      5-min Rain = 0
KOD1 221406Z 15012KT 19/16 A2996 RMK A01 T01880164  RH  086%=      5-min Rain = 0
KOD1 221407Z 15012KT 19/17 A2996 RMK A01 T01890165  RH  086%=      5-min Rain = 0
KOD1 221408Z 15012KT 19/17 A2996 RMK A01 T01890165  RH  086%=      5-min Rain = 0
KOD1 221409Z 15011KT 19/17 A2996 RMK A01 T01900165  RH  085%=      5-min Rain = 0
KOD1 221410Z 15012KT 19/17 A2996 RMK A01 T01900165  RH  085%=      5-min Rain = 0
KOD1 221411Z 16012KT 19/16 A2996 RMK A01 T01900164  RH  085%=      5-min Rain = 0
KOD1 221412Z 16013KT 19/16 A2996 RMK A01 T01910164  RH  085%=      5-min Rain = 0
KOD1 221413Z 16013KT 19/16 A2996 RMK A01 T01910164  RH  084%=      5-min Rain = 0
KOD1 221414Z 16013KT 19/16 A2996 RMK A01 T01910164  RH  084%=      5-min Rain = 0
KOD1 221415Z 15013KT 19/16 A2996 RMK A01 T01910163  RH  084%=      5-min Rain = 0
KOD1 221416Z 15013KT 19/16 A2996 RMK A01 T01910164  RH  084%=      5-min Rain = 0
KOD1 221417Z 15013KT 19/16 A2996 RMK A01 T01910164  RH  084%=      5-min Rain = 0
KOD1 221418Z 15014KT 19/16 A2996 RMK A01 T01900163  RH  084%=      5-min Rain = 0
KOD1 221419Z 15014KT 19/16 A2996 RMK A01 T01900163  RH  084%=      5-min Rain = 0
KOD1 221420Z 15013KT 19/16 A2996 RMK A01 T01900164  RH  085%=      5-min Rain = 0
KOD1 221421Z 15014KT 19/16 A2996 RMK A01 T01910164  RH  084%=      5-min Rain = 0
KOD1 221422Z 16014KT 19/16 A2996 RMK A01 T01910164  RH  084%=      5-min Rain = 0
KOD1 221423Z 15014KT 19/16 A2996 RMK A01 T01910164  RH  084%=      5-min Rain = 0
KOD1 221424Z 15014KT 19/16 A2996 RMK A01 T01910163  RH  084%=      5-min Rain = 0
KOD1 221425Z 15013KT 19/16 A2996 RMK A01 T01920164  RH  084%=      5-min Rain = 0
KOD1 221426Z 16012KT 19/16 A2996 RMK A01 T01920164  RH  084%=      5-min Rain = 0
KOD1 221427Z 16013KT 19/16 A2996 RMK A01 T01930164  RH  083%=      5-min Rain = 0
KOD1 221428Z 15013KT 19/16 A2997 RMK A01 T01930164  RH  083%=      5-min Rain = 0
KOD1 221429Z 16014KT 19/16 A2997 RMK A01 T01940164  RH  083%=      5-min Rain = 0
KOD1 221430Z 16013KT 19/16 A2997 RMK A01 T01940164  RH  083%=      5-min Rain = 0
KOD1 221431Z 15012KT 19/16 A2997 RMK A01 T01940164  RH  083%=      5-min Rain = 0
KOD1 221432Z 16013KT 19/16 A2997 RMK A01 T01940164  RH  083%=      5-min Rain = 0
KOD1 221433Z 16012KT 19/16 A2997 RMK A01 T01940164  RH  083%=      5-min Rain = 0
KOD1 221434Z 16014KT 20/17 A2997 RMK A01 T01950165  RH  083%=      5-min Rain = 0
KOD1 221435Z 16016KT 20/16 A2997 RMK A01 T01950164  RH  082%=      5-min Rain = 0
KOD1 221436Z 16015KT 20/16 A2997 RMK A01 T01950164  RH  082%=      5-min Rain = 0
KOD1 221437Z 16014KT 20/17 A2997 RMK A01 T01950165  RH  083%=      5-min Rain = 0
KOD1 221438Z 16014KT 20/17 A2997 RMK A01 T01960165  RH  082%=      5-min Rain = 0
KOD1 221439Z 16013KT 20/17 A2997 RMK A01 T01960165  RH  082%=      5-min Rain = 0
KOD1 221440Z 16012KT 20/17 A2997 RMK A01 T01970165  RH  082%=      5-min Rain = 0
KOD1 221441Z 16013KT 20/17 A2997 RMK A01 T01980165  RH  081%=      5-min Rain = 0
KOD1 221442Z 16014KT 20/17 A2997 RMK A01 T01980165  RH  081%=      5-min Rain = 0
KOD1 221443Z 16014KT 20/17 A2997 RMK A01 T01980165  RH  081%=      5-min Rain = 0
KOD1 221444Z 16014KT 20/17 A2997 RMK A01 T01990165  RH  081%=      5-min Rain = 0
KOD1 221445Z 17013KT 20/17 A2997 RMK A01 T01990165  RH  081%=      5-min Rain = 0
KOD1 221446Z 17012KT 20/17 A2997 RMK A01 T01980165  RH  081%=      5-min Rain = 0
KOD1 221447Z 16012KT 20/17 A2997 RMK A01 T02000166  RH  081%=      5-min Rain = 0
KOD1 221448Z 16012KT 20/17 A2997 RMK A01 T02010166  RH  080%=      5-min Rain = 0
KOD1 221449Z 16013KT 20/17 A2997 RMK A01 T02000165  RH  080%=      5-min Rain = 0
KOD1 221450Z 16013KT 20/17 A2997 RMK A01 T02000165  RH  080%=      5-min Rain = 0
KOD1 221451Z 15013KT 20/17 A2997 RMK A01 T01990165  RH  080%=      5-min Rain = 0
KOD1 221452Z 16013KT 20/17 A2997 RMK A01 T01990165  RH  081%=      5-min Rain = 0
KOD1 221453Z 16013KT 20/17 A2997 RMK A01 T01990165  RH  081%=      5-min Rain = 0
KOD1 221454Z 16013KT 20/17 A2997 RMK A01 T02000165  RH  081%=      5-min Rain = 0
KOD1 221455Z 17012KT 20/17 A2997 RMK A01 T02010166  RH  080%=      5-min Rain = 0
KOD1 221456Z 16014KT 20/17 A2997 RMK A01 T02020166  RH  080%=      5-min Rain = 0
KOD1 221457Z 16014KT 20/17 A2997 RMK A01 T02020165  RH  079%=      5-min Rain = 0
KOD1 221458Z 17013KT 20/17 A2997 RMK A01 T02020166  RH  080%=      5-min Rain = 0
KOD1 221459Z 17014KT 20/17 A2997 RMK A01 T02020165  RH  079%=      5-min Rain = 0
KOD1 221500Z 16013KT 20/17 A2997 RMK A01 T02020165  RH  079%=      5-min Rain = 0
KOD1 221501Z 17014KT 20/17 A2998 RMK A01 T02030165  RH  079%=      5-min Rain = 0
KOD1 221502Z 17013KT 20/17 A2998 RMK A01 T02020165  RH  079%=      5-min Rain = 0
KOD1 221503Z 18013KT 20/17 A2998 RMK A01 T02030166  RH  079%=      5-min Rain = 0
KOD1 221504Z 17013KT 20/17 A2998 RMK A01 T02030166  RH  079%=      5-min Rain = 0
KOD1 221505Z 17013KT 20/17 A2998 RMK A01 T02030165  RH  079%=      5-min Rain = 0
KOD1 221506Z 17014KT 20/17 A2998 RMK A01 T02030166  RH  079%=      5-min Rain = 0
KOD1 221507Z 16015KT 20/17 A2998 RMK A01 T02030166  RH  079%=      5-min Rain = 0
KOD1 221508Z 16013KT 20/17 A2998 RMK A01 T02030166  RH  079%=      5-min Rain = 0
KOD1 221509Z 17013KT 20/17 A2998 RMK A01 T02040166  RH  079%=      5-min Rain = 0
KOD1 221510Z 17013KT 20/17 A2998 RMK A01 T02040166  RH  079%=      5-min Rain = 0
KOD1 221511Z 17013KT 20/17 A2998 RMK A01 T02030166  RH  079%=      5-min Rain = 0
KOD1 221512Z 17012KT 20/17 A2998 RMK A01 T02030165  RH  079%=      5-min Rain = 0
KOD1 221513Z 18013KT 20/17 A2998 RMK A01 T02030166  RH  079%=      5-min Rain = 0
KOD1 221514Z 18014KT 20/17 A2998 RMK A01 T02040166  RH  079%=      5-min Rain = 0
KOD1 221515Z 17011KT 20/17 A2998 RMK A01 T02040166  RH  078%=      5-min Rain = 0
KOD1 221516Z 17013KT 20/17 A2998 RMK A01 T02030165  RH  079%=      5-min Rain = 0
KOD1 221517Z 18013KT 20/17 A2998 RMK A01 T02020165  RH  079%=      5-min Rain = 0
KOD1 221518Z 18014KT 20/17 A2999 RMK A01 T02020165  RH  079%=      5-min Rain = 0
KOD1 221519Z 18012KT 20/17 A2999 RMK A01 T02020165  RH  079%=      5-min Rain = 0
KOD1 221520Z 18011KT 20/17 A2999 RMK A01 T02010165  RH  080%=      5-min Rain = 0
KOD1 221521Z 17010KT 20/17 A2999 RMK A01 T02020166  RH  080%=      5-min Rain = 0
KOD1 221522Z 17013KT 20/17 A2999 RMK A01 T02030166  RH  079%=      5-min Rain = 0
KOD1 221523Z 17013KT 20/17 A2999 RMK A01 T02030165  RH  079%=      5-min Rain = 0
KOD1 221524Z 17013KT 20/17 A2999 RMK A01 T02020165  RH  079%=      5-min Rain = 0
KOD1 221525Z 17012KT 20/17 A2999 RMK A01 T02010165  RH  080%=      5-min Rain = 0
KOD1 221526Z 17011KT 20/17 A2999 RMK A01 T02010165  RH  080%=      5-min Rain = 0
KOD1 221527Z 17011KT 20/17 A2999 RMK A01 T02020166  RH  080%=      5-min Rain = 0
KOD1 221528Z 18009KT 20/17 A2999 RMK A01 T02020166  RH  079%=      5-min Rain = 0
KOD1 221529Z 17010KT 20/17 A2999 RMK A01 T02030167  RH  080%=      5-min Rain = 0
KOD1 221530Z 18012KT 20/17 A2999 RMK A01 T02030166  RH  079%=      5-min Rain = 0
KOD1 221531Z 19011KT 20/17 A2999 RMK A01 T02020166  RH  079%=      5-min Rain = 0
KOD1 221532Z 18011KT 20/17 A2999 RMK A01 T02020166  RH  080%=      5-min Rain = 0
KOD1 221533Z 17011KT 20/17 A2999 RMK A01 T02020166  RH  080%=      5-min Rain = 0
KOD1 221534Z 16010KT 20/17 A2999 RMK A01 T02020166  RH  080%=      5-min Rain = 0
KOD1 221535Z 17011KT 20/17 A2999 RMK A01 T02030167  RH  080%=      5-min Rain = 0
KOD1 221536Z 17010KT 20/17 A2999 RMK A01 T02030166  RH  079%=      5-min Rain = 0
KOD1 221537Z 17010KT 20/17 A2999 RMK A01 T02040167  RH  079%=      5-min Rain = 0
KOD1 221538Z 17009KT 20/17 A2999 RMK A01 T02040166  RH  079%=      5-min Rain = 0
KOD1 221539Z 17008KT 20/17 A2999 RMK A01 T02030167  RH  079%=      5-min Rain = 0
KOD1 221540Z 17009KT 20/17 A2999 RMK A01 T02040167  RH  079%=      5-min Rain = 0
KOD1 221541Z 17009KT 20/17 A2999 RMK A01 T02040167  RH  079%=      5-min Rain = 0
KOD1 221542Z 19008KT 21/17 A2999 RMK A01 T02050168  RH  079%=      5-min Rain = 0
KOD1 221543Z 17009KT 21/17 A2999 RMK A01 T02050167  RH  079%=      5-min Rain = 0
KOD1 221544Z 17010KT 21/17 A2999 RMK A01 T02060168  RH  078%=      5-min Rain = 0
KOD1 221545Z 18010KT 21/17 A2999 RMK A01 T02060166  RH  078%=      5-min Rain = 0
KOD1 221546Z 18010KT 21/17 A2999 RMK A01 T02060166  RH  078%=      5-min Rain = 0
KOD1 221547Z 19010KT 21/17 A2999 RMK A01 T02050166  RH  079%=      5-min Rain = 0
KOD1 221548Z 17009KT 21/17 A2999 RMK A01 T02050167  RH  079%=      5-min Rain = 0
KOD1 221549Z 18010KT 21/17 A2999 RMK A01 T02060168  RH  079%=      5-min Rain = 0
KOD1 221550Z 17010KT 21/17 A2999 RMK A01 T02070167  RH  078%=      5-min Rain = 0
KOD1 221551Z 17009KT 21/17 A2999 RMK A01 T02060166  RH  077%=      5-min Rain = 0
KOD1 221552Z 18009KT 21/17 A2999 RMK A01 T02060166  RH  078%=      5-min Rain = 0
KOD1 221553Z 17010KT 21/17 A2999 RMK A01 T02060167  RH  078%=      5-min Rain = 0
KOD1 221554Z 16009KT 21/17 A2999 RMK A01 T02070166  RH  077%=      5-min Rain = 0
KOD1 221555Z 17012KT 21/17 A2999 RMK A01 T02070166  RH  078%=      5-min Rain = 0
KOD1 221556Z 18009KT 21/17 A2999 RMK A01 T02060165  RH  077%=      5-min Rain = 0
KOD1 221557Z 18008KT 21/17 A2999 RMK A01 T02050166  RH  078%=      5-min Rain = 0
KOD1 221558Z 17008KT 21/17 A2998 RMK A01 T02070168  RH  078%=      5-min Rain = 0
KOD1 221559Z 17010KT 21/17 A2998 RMK A01 T02080168  RH  078%=      5-min Rain = 0
KOD1 221600Z 18010KT 21/17 A2998 RMK A01 T02100168  RH  077%=      5-min Rain = 0
KOD1 221601Z 19010KT 21/17 A2998 RMK A01 T02100166  RH  076%=      5-min Rain = 0
KOD1 221602Z 19008KT 21/17 A2998 RMK A01 T02090166  RH  076%=      5-min Rain = 0
KOD1 221603Z 18009KT 21/17 A2998 RMK A01 T02090166  RH  076%=      5-min Rain = 0
KOD1 221604Z 16010KT 21/17 A2998 RMK A01 T02100167  RH  076%=      5-min Rain = 0
KOD1 221605Z 17009KT 21/17 A2998 RMK A01 T02090166  RH  076%=      5-min Rain = 0
KOD1 221606Z 18009KT 21/17 A2998 RMK A01 T02090168  RH  077%=      5-min Rain = 0
KOD1 221607Z 16009KT 21/17 A2998 RMK A01 T02120170  RH  077%=      5-min Rain = 0
KOD1 221608Z 16011KT 21/17 A2998 RMK A01 T02140169  RH  076%=      5-min Rain = 0
KOD1 221609Z 17010KT 21/17 A2999 RMK A01 T02130168  RH  075%=      5-min Rain = 0
KOD1 221610Z 17010KT 21/17 A2999 RMK A01 T02130169  RH  076%=      5-min Rain = 0
KOD1 221611Z 17009KT 21/17 A2999 RMK A01 T02130168  RH  076%=      5-min Rain = 0
KOD1 221612Z 17009KT 21/17 A2999 RMK A01 T02130169  RH  076%=      5-min Rain = 0
KOD1 221613Z 18008KT 21/17 A2999 RMK A01 T02120168  RH  076%=      5-min Rain = 0
KOD1 221614Z 16008KT 22/17 A2999 RMK A01 T02150171  RH  076%=      5-min Rain = 0
KOD1 221615Z 16010KT 22/17 A2999 RMK A01 T02150168  RH  074%=      5-min Rain = 0
KOD1 221616Z 16011KT 21/17 A2999 RMK A01 T02140168  RH  075%=      5-min Rain = 0
KOD1 221617Z 16009KT 21/17 A2999 RMK A01 T02130169  RH  076%=      5-min Rain = 0
KOD1 221618Z 17011KT 21/17 A2999 RMK A01 T02140169  RH  075%=      5-min Rain = 0
KOD1 221619Z 17011KT 21/17 A2999 RMK A01 T02130167  RH  075%=      5-min Rain = 0
KOD1 221620Z 17010KT 21/17 A2999 RMK A01 T02120167  RH  075%=      5-min Rain = 0
KOD1 221621Z 17009KT 21/17 A2999 RMK A01 T02110167  RH  076%=      5-min Rain = 0
KOD1 221622Z 17009KT 21/17 A2999 RMK A01 T02120168  RH  076%=      5-min Rain = 0
KOD1 221623Z 18010KT 21/17 A2999 RMK A01 T02120167  RH  075%=      5-min Rain = 0
KOD1 221624Z 17008KT 21/17 A2999 RMK A01 T02110166  RH  076%=      5-min Rain = 0
KOD1 221625Z 17010KT 21/17 A2999 RMK A01 T02110168  RH  076%=      5-min Rain = 0
KOD1 221626Z 18008KT 21/17 A2999 RMK A01 T02110167  RH  076%=      5-min Rain = 0
KOD1 221627Z 19009KT 21/17 A2999 RMK A01 T02110168  RH  076%=      5-min Rain = 0
KOD1 221628Z 17009KT 21/17 A2999 RMK A01 T02110168  RH  077%=      5-min Rain = 0
KOD1 221629Z 19008KT 21/17 A2999 RMK A01 T02130169  RH  076%=      5-min Rain = 0
KOD1 221630Z 20009KT 21/17 A2999 RMK A01 T02120168  RH  076%=      5-min Rain = 0
KOD1 221631Z 21008KT 21/17 A30 RMK A01 T02110167  RH  076%=      5-min Rain = 0
KOD1 221632Z 22007KT 21/17 A30 RMK A01 T02090167  RH  077%=      5-min Rain = 0
KOD1 221633Z 20006KT 21/17 A30 RMK A01 T02080167  RH  078%=      5-min Rain = 0
KOD1 221634Z 21007KT 21/17 A2999 RMK A01 T02080168  RH  077%=      5-min Rain = 0
KOD1 221635Z 21008KT 21/17 A2999 RMK A01 T02080167  RH  077%=      5-min Rain = 0
KOD1 221636Z 22008KT 21/17 A2999 RMK A01 T02080167  RH  077%=      5-min Rain = 0
KOD1 221637Z 21009KT 21/17 A2999 RMK A01 T02080167  RH  077%=      5-min Rain = 0
KOD1 221638Z 21007KT 21/17 A2999 RMK A01 T02080167  RH  077%=      5-min Rain = 0
KOD1 221639Z 22007KT 21/17 A30 RMK A01 T02080167  RH  077%=      5-min Rain = 0
KOD1 221640Z 22006KT 21/17 A30 RMK A01 T02070167  RH  078%=      5-min Rain = 0
KOD1 221641Z 22006KT 21/17 A30 RMK A01 T02070168  RH  078%=      5-min Rain = 0
KOD1 221642Z 22004KT 21/17 A30 RMK A01 T02080169  RH  078%=      5-min Rain = 0
KOD1 221643Z 22006KT 21/17 A30 RMK A01 T02100170  RH  078%=      5-min Rain = 0
KOD1 221644Z 21006KT 21/17 A30 RMK A01 T02110169  RH  077%=      5-min Rain = 0
KOD1 221645Z 19007KT 21/17 A30 RMK A01 T02110167  RH  076%=      5-min Rain = 0
KOD1 221646Z 21009KT 21/17 A30 RMK A01 T02100167  RH  076%=      5-min Rain = 0
KOD1 221647Z 21007KT 21/17 A30 RMK A01 T02100167  RH  076%=      5-min Rain = 0
KOD1 221648Z 22005KT 21/17 A30 RMK A01 T02090167  RH  077%=      5-min Rain = 0
KOD1 221649Z 23004KT 21/17 A30 RMK A01 T02090167  RH  077%=      5-min Rain = 0
KOD1 221650Z 22005KT 21/17 A30 RMK A01 T02080167  RH  077%=      5-min Rain = 0
KOD1 221651Z 20007KT 21/17 A30 RMK A01 T02080167  RH  077%=      5-min Rain = 0
KOD1 221652Z 18006KT 21/17 A30 RMK A01 T02100167  RH  076%=      5-min Rain = 0
KOD1 221653Z 17006KT 21/17 A30 RMK A01 T02100166  RH  076%=      5-min Rain = 0
KOD1 221654Z 18007KT 21/17 A30 RMK A01 T02110167  RH  076%=      5-min Rain = 0
KOD1 221655Z 16007KT 21/17 A30 RMK A01 T02120166  RH  075%=      5-min Rain = 0
KOD1 221656Z 16007KT 21/17 A30 RMK A01 T02130166  RH  075%=      5-min Rain = 0
KOD1 221657Z 17007KT 21/17 A30 RMK A01 T02120167  RH  076%=      5-min Rain = 0
KOD1 221658Z 19007KT 21/17 A30 RMK A01 T02130168  RH  076%=      5-min Rain = 0
KOD1 221659Z 18007KT 21/17 A30 RMK A01 T02130167  RH  075%=      5-min Rain = 0
KOD1 221700Z 17007KT 21/17 A30 RMK A01 T02130167  RH  075%=      5-min Rain = 0
KOD1 221701Z 19006KT 21/17 A30 RMK A01 T02130166  RH  075%=      5-min Rain = 0
KOD1 221702Z 20007KT 21/17 A30 RMK A01 T02120166  RH  075%=      5-min Rain = 0
KOD1 221703Z 20007KT 21/17 A30 RMK A01 T02120166  RH  075%=      5-min Rain = 0
KOD1 221704Z 20009KT 21/17 A30 RMK A01 T02130167  RH  075%=      5-min Rain = 0
KOD1 221705Z 19007KT 21/17 A30 RMK A01 T02140166  RH  074%=      5-min Rain = 0
KOD1 221706Z 19006KT 21/17 A30 RMK A01 T02140167  RH  075%=      5-min Rain = 0
KOD1 221707Z 19007KT 22/17 A30 RMK A01 T02160168  RH  074%=      5-min Rain = 0
KOD1 221708Z 18008KT 22/17 A30 RMK A01 T02160167  RH  074%=      5-min Rain = 0
KOD1 221709Z 19007KT 22/17 A30 RMK A01 T02170166  RH  073%=      5-min Rain = 0
KOD1 221710Z 18006KT 22/17 A30 RMK A01 T02160165  RH  073%=      5-min Rain = 0
KOD1 221711Z 19006KT 22/17 A30 RMK A01 T02160168  RH  074%=      5-min Rain = 0
KOD1 221712Z 19004KT 22/17 A30 RMK A01 T02170168  RH  074%=      5-min Rain = 0
KOD1 221713Z 19005KT 22/17 A30 RMK A01 T02170166  RH  073%=      5-min Rain = 0
KOD1 221714Z 19006KT 22/17 A30 RMK A01 T02150166  RH  073%=      5-min Rain = 0
KOD1 221715Z 20009KT 22/17 A30 RMK A01 T02160165  RH  073%=      5-min Rain = 0
KOD1 221716Z 20009KT 22/17 A30 RMK A01 T02180165  RH  072%=      5-min Rain = 0
KOD1 221717Z 19008KT 22/17 A30 RMK A01 T02190166  RH  072%=      5-min Rain = 0
KOD1 221718Z 17008KT 22/17 A30 RMK A01 T02200165  RH  071%=      5-min Rain = 0
KOD1 221719Z 17006KT 22/17 A30 RMK A01 T02200165  RH  071%=      5-min Rain = 0
KOD1 221720Z 19008KT 22/17 A30 RMK A01 T02210166  RH  071%=      5-min Rain = 0
KOD1 221721Z 18009KT 22/16 A30 RMK A01 T02210164  RH  070%=      5-min Rain = 0
KOD1 221722Z 17007KT 22/16 A30 RMK A01 T02210164  RH  070%=      5-min Rain = 0
KOD1 221723Z 18006KT 22/16 A30 RMK A01 T02210164  RH  070%=      5-min Rain = 0
KOD1 221724Z 17008KT 22/16 A30 RMK A01 T02210164  RH  070%=      5-min Rain = 0
KOD1 221725Z 19009KT 22/16 A30 RMK A01 T02210162  RH  069%=      5-min Rain = 0
KOD1 221726Z 19009KT 22/16 A30 RMK A01 T02220163  RH  069%=      5-min Rain = 0
KOD1 221727Z 19007KT 22/16 A30 RMK A01 T02210163  RH  069%=      5-min Rain = 0
KOD1 221728Z 19010KT 22/16 A30 RMK A01 T02220164  RH  070%=      5-min Rain = 0
KOD1 221729Z 19007KT 22/16 A30 RMK A01 T02220161  RH  068%=      5-min Rain = 0
KOD1 221730Z 20007KT 22/16 A30 RMK A01 T02200160  RH  069%=      5-min Rain = 0
KOD1 221731Z 19008KT 22/16 A30 RMK A01 T02190162  RH  070%=      5-min Rain = 0
KOD1 221732Z 19007KT 22/16 A30 RMK A01 T02190162  RH  070%=      5-min Rain = 0
KOD1 221733Z 20007KT 22/16 A30 RMK A01 T02200162  RH  069%=      5-min Rain = 0
KOD1 221734Z 19006KT 22/16 A30 RMK A01 T02200162  RH  070%=      5-min Rain = 0
KOD1 221735Z 18008KT 22/17 A30 RMK A01 T02210165  RH  070%=      5-min Rain = 0
KOD1 221736Z 20008KT 22/16 A30 RMK A01 T02230163  RH  069%=      5-min Rain = 0
KOD1 221737Z 17006KT 22/16 A30 RMK A01 T02230164  RH  069%=      5-min Rain = 0
KOD1 221738Z 16008KT 22/16 A30 RMK A01 T02230164  RH  069%=      5-min Rain = 0
KOD1 221739Z 16010KT 22/16 A30 RMK A01 T02240163  RH  068%=      5-min Rain = 0
KOD1 221740Z 15008KT 22/16 A30 RMK A01 T02230163  RH  069%=      5-min Rain = 0
KOD1 221741Z 15008KT 22/16 A30 RMK A01 T02230164  RH  069%=      5-min Rain = 0
KOD1 221742Z 19009KT 22/16 A30 RMK A01 T02240164  RH  069%=      5-min Rain = 0
KOD1 221743Z 18010KT 22/16 A30 RMK A01 T02230161  RH  068%=      5-min Rain = 0
KOD1 221744Z 18009KT 22/16 A30 RMK A01 T02220160  RH  068%=      5-min Rain = 0
KOD1 221745Z 19007KT 22/16 A30 RMK A01 T02210160  RH  068%=      5-min Rain = 0
KOD1 221746Z 18008KT 22/16 A30 RMK A01 T02220161  RH  068%=      5-min Rain = 0
KOD1 221747Z 18008KT 22/16 A30 RMK A01 T02230162  RH  068%=      5-min Rain = 0
KOD1 221748Z 17008KT 22/16 A30 RMK A01 T02230161  RH  068%=      5-min Rain = 0
KOD1 221749Z 17006KT 22/16 A30 RMK A01 T02220161  RH  068%=      5-min Rain = 0
KOD1 221750Z 20007KT 22/16 A30 RMK A01 T02230163  RH  069%=      5-min Rain = 0
KOD1 221751Z 19006KT 22/16 A30 RMK A01 T02220161  RH  068%=      5-min Rain = 0
KOD1 221752Z 20004KT 22/16 A30 RMK A01 T02220164  RH  069%=      5-min Rain = 0
KOD1 221753Z 21007KT 22/17 A30 RMK A01 T02240165  RH  069%=      5-min Rain = 0
KOD1 221754Z 19005KT 22/16 A30 RMK A01 T02210161  RH  069%=      5-min Rain = 0
KOD1 221755Z 18008KT 22/16 A30 RMK A01 T02200162  RH  069%=      5-min Rain = 0
KOD1 221756Z 18009KT 22/16 A30 RMK A01 T02210161  RH  069%=      5-min Rain = 0
KOD1 221757Z 19007KT 22/16 A30 RMK A01 T02210160  RH  068%=      5-min Rain = 0
KOD1 221758Z 19008KT 22/16 A30 RMK A01 T02210160  RH  068%=      5-min Rain = 0
KOD1 221759Z 19007KT 22/16 A30 RMK A01 T02210161  RH  068%=      5-min Rain = 0
KOD1 221800Z 18006KT 22/16 A30 RMK A01 T02210159  RH  068%=      5-min Rain = 0
KOD1 221801Z 19007KT 22/16 A30 RMK A01 T02200159  RH  068%=      5-min Rain = 0
KOD1 221802Z 18006KT 22/16 A30 RMK A01 T02200157  RH  068%=      5-min Rain = 0
KOD1 221803Z 18006KT 22/16 A30 RMK A01 T02200161  RH  069%=      5-min Rain = 0
KOD1 221804Z 17006KT 22/16 A30 RMK A01 T02200160  RH  068%=      5-min Rain = 0
KOD1 221805Z 19007KT 22/16 A30 RMK A01 T02210159  RH  068%=      5-min Rain = 0
KOD1 221806Z 20006KT 22/16 A30 RMK A01 T02220160  RH  068%=      5-min Rain = 0
KOD1 221807Z 20007KT 22/16 A30 RMK A01 T02220162  RH  069%=      5-min Rain = 0
KOD1 221808Z 18007KT 22/16 A30 RMK A01 T02230163  RH  068%=      5-min Rain = 0
KOD1 221809Z 17006KT 22/16 A30 RMK A01 T02240161  RH  068%=      5-min Rain = 0
KOD1 221810Z 19005KT 22/16 A30 RMK A01 T02240163  RH  068%=      5-min Rain = 0
KOD1 221811Z 18007KT 23/16 A30 RMK A01 T02250163  RH  068%=      5-min Rain = 0
KOD1 221812Z 19008KT 23/16 A30 RMK A01 T02260162  RH  067%=      5-min Rain = 0
KOD1 221813Z 19005KT 22/16 A30 RMK A01 T02240159  RH  066%=      5-min Rain = 0
KOD1 221814Z 20005KT 22/16 A30 RMK A01 T02240161  RH  068%=      5-min Rain = 0
KOD1 221815Z 19006KT 23/16 A30 RMK A01 T02250161  RH  067%=      5-min Rain = 0
KOD1 221816Z 19006KT 23/16 A30 RMK A01 T02250161  RH  067%=      5-min Rain = 0
KOD1 221817Z 21006KT 23/16 A30 RMK A01 T02260162  RH  067%=      5-min Rain = 0
KOD1 221818Z 21005KT 23/16 A30 RMK A01 T02250159  RH  066%=      5-min Rain = 0
KOD1 221819Z 19006KT 22/16 A30 RMK A01 T02240162  RH  068%=      5-min Rain = 0
KOD1 221820Z 17007KT 23/16 A30 RMK A01 T02260163  RH  068%=      5-min Rain = 0
KOD1 221821Z 17005KT 23/16 A30 RMK A01 T02270161  RH  066%=      5-min Rain = 0
KOD1 221822Z 16007KT 23/16 A30 RMK A01 T02260161  RH  067%=      5-min Rain = 0
KOD1 221823Z 17007KT 23/16 A2999 RMK A01 T02270164  RH  067%=      5-min Rain = 0
KOD1 221824Z 19007KT 23/17 A30 RMK A01 T02290165  RH  067%=      5-min Rain = 0
KOD1 221825Z 19008KT 23/16 A30 RMK A01 T02310161  RH  065%=      5-min Rain = 0
KOD1 221826Z 19006KT 23/16 A30 RMK A01 T02280160  RH  065%=      5-min Rain = 0
KOD1 221827Z 18005KT 23/17 A30 RMK A01 T02290166  RH  068%=      5-min Rain = 0
KOD1 221828Z 18005KT 23/16 A30 RMK A01 T02310162  RH  065%=      5-min Rain = 0
KOD1 221829Z 20007KT 23/16 A30 RMK A01 T02300163  RH  066%=      5-min Rain = 0
KOD1 221830Z 20006KT 23/16 A30 RMK A01 T02300163  RH  066%=      5-min Rain = 0
KOD1 221831Z 20005KT 23/16 A2999 RMK A01 T02290162  RH  066%=      5-min Rain = 0
KOD1 221832Z 21008G14KT 23/17 A2999 RMK A01 T02290165  RH  067%=      5-min Rain = 0
KOD1 221833Z 18009KT 23/16 A2999 RMK A01 T02320162  RH  065%=      5-min Rain = 0
KOD1 221834Z 18007KT 23/16 A2999 RMK A01 T02320160  RH  064%=      5-min Rain = 0
KOD1 221835Z 17008KT 23/16 A2999 RMK A01 T02310160  RH  064%=      5-min Rain = 0
KOD1 221836Z 17008KT 23/16 A2999 RMK A01 T02290158  RH  064%=      5-min Rain = 0
KOD1 221837Z 16007KT 23/16 A2999 RMK A01 T02300161  RH  065%=      5-min Rain = 0
KOD1 221838Z 17005KT 23/16 A2999 RMK A01 T02300161  RH  065%=      5-min Rain = 0
KOD1 221839Z 16005KT 23/16 A2999 RMK A01 T02300162  RH  065%=      5-min Rain = 0
KOD1 221840Z 18004KT 23/17 A30 RMK A01 T02310165  RH  066%=      5-min Rain = 0
KOD1 221841Z 19006KT 23/16 A30 RMK A01 T02340164  RH  065%=      5-min Rain = 0
KOD1 221842Z 19004KT 23/16 A30 RMK A01 T02330160  RH  064%=      5-min Rain = 0
KOD1 221843Z 15004KT 23/16 A30 RMK A01 T02320162  RH  065%=      5-min Rain = 0
KOD1 221844Z 17004KT 23/17 A30 RMK A01 T02320166  RH  066%=      5-min Rain = 0
KOD1 221845Z 19004KT 23/16 A30 RMK A01 T02330164  RH  065%=      5-min Rain = 0
KOD1 221846Z 18005KT 23/17 A30 RMK A01 T02340165  RH  065%=      5-min Rain = 0
KOD1 221847Z 20004KT 23/16 A30 RMK A01 T02340163  RH  064%=      5-min Rain = 0
KOD1 221848Z 16005KT 23/16 A30 RMK A01 T02330163  RH  064%=      5-min Rain = 0
KOD1 221849Z 17007G14KT 23/17 A30 RMK A01 T02330165  RH  066%=      5-min Rain = 0
KOD1 221850Z 21007KT 24/17 A30 RMK A01 T02350167  RH  066%=      5-min Rain = 0
KOD1 221851Z 19005KT 24/17 A30 RMK A01 T02360167  RH  065%=      5-min Rain = 0
KOD1 221852Z 19006KT 24/17 A2999 RMK A01 T02370165  RH  064%=      5-min Rain = 0
KOD1 221853Z 16004KT 24/16 A30 RMK A01 T02360162  RH  063%=      5-min Rain = 0
KOD1 221854Z 17004KT 23/16 A30 RMK A01 T02340162  RH  064%=      5-min Rain = 0
KOD1 221855Z 18003KT 23/16 A30 RMK A01 T02330160  RH  063%=      5-min Rain = 0
KOD1 221856Z 21005KT 23/17 A30 RMK A01 T02340165  RH  065%=      5-min Rain = 0
KOD1 221857Z 24004KT 23/16 A30 RMK A01 T02340163  RH  064%=      5-min Rain = 0
KOD1 221858Z 22004KT 23/17 A30 RMK A01 T02340167  RH  066%=      5-min Rain = 0
KOD1 221859Z 23004KT 23/17 A30 RMK A01 T02330166  RH  066%=      5-min Rain = 0
KOD1 221900Z 22003KT 23/16 A30 RMK A01 T02320164  RH  065%=      5-min Rain = 0
KOD1 221901Z 20002KT 23/16 A30 RMK A01 T02320162  RH  065%=      5-min Rain = 0
KOD1 221902Z 15003KT 23/16 A30 RMK A01 T02320163  RH  065%=      5-min Rain = 0
KOD1 221903Z 15002KT 23/16 A30 RMK A01 T02330162  RH  064%=      5-min Rain = 0
KOD1 221904Z 14001KT 23/16 A30 RMK A01 T02330161  RH  064%=      5-min Rain = 0
KOD1 221905Z 12005KT 23/16 A30 RMK A01 T02340163  RH  064%=      5-min Rain = 0
KOD1 221906Z 15004KT 23/16 A30 RMK A01 T02330164  RH  065%=      5-min Rain = 0
KOD1 221907Z 18004KT 23/16 A30 RMK A01 T02340164  RH  065%=      5-min Rain = 0
KOD1 221908Z 19003KT 23/16 A30 RMK A01 T02340163  RH  065%=      5-min Rain = 0
KOD1 221909Z 19001KT 23/16 A30 RMK A01 T02330160  RH  064%=      5-min Rain = 0
KOD1 221910Z 17002KT 23/16 A30 RMK A01 T02320162  RH  065%=      5-min Rain = 0
KOD1 221911Z 20004KT 23/16 A30 RMK A01 T02320163  RH  065%=      5-min Rain = 0
KOD1 221912Z 23001KT 23/16 A30 RMK A01 T02310161  RH  064%=      5-min Rain = 0
KOD1 221913Z 29000KT 23/16 A30 RMK A01 T02310160  RH  064%=      5-min Rain = 0
KOD1 221914Z 21001KT 23/16 A30 RMK A01 T02320162  RH  065%=      5-min Rain = 0
KOD1 221915Z 21002KT 23/17 A30 RMK A01 T02330165  RH  065%=      5-min Rain = 0
KOD1 221916Z 21001KT 23/16 A30 RMK A01 T02340162  RH  064%=      5-min Rain = 0
KOD1 221917Z 18001KT 24/17 A30 RMK A01 T02350166  RH  065%=      5-min Rain = 0
KOD1 221918Z 12000KT 24/17 A30 RMK A01 T02370166  RH  065%=      5-min Rain = 0
KOD1 221919Z 18001KT 24/17 A30 RMK A01 T02390165  RH  064%=      5-min Rain = 0
KOD1 221920Z 20003KT 24/17 A30 RMK A01 T02400167  RH  064%=      5-min Rain = 0
KOD1 221921Z 20005KT 24/17 A30 RMK A01 T02390165  RH  063%=      5-min Rain = 0
KOD1 221922Z 18005KT 24/17 A30 RMK A01 T02380165  RH  063%=      5-min Rain = 0
KOD1 221923Z 19004KT 24/16 A2999 RMK A01 T02360162  RH  063%=      5-min Rain = 0
KOD1 221924Z 19006KT 24/16 A2999 RMK A01 T02360164  RH  064%=      5-min Rain = 0
KOD1 221925Z 20005KT 24/17 A2999 RMK A01 T02370169  RH  066%=      5-min Rain = 0
KOD1 221926Z 20005KT 24/16 A2999 RMK A01 T02360163  RH  064%=      5-min Rain = 0
KOD1 221927Z 15004KT 24/17 A2999 RMK A01 T02370166  RH  065%=      5-min Rain = 0
KOD1 221928Z 15005KT 24/16 A2999 RMK A01 T02370164  RH  064%=      5-min Rain = 0
KOD1 221929Z 15004KT 24/16 A30 RMK A01 T02360161  RH  063%=      5-min Rain = 0
KOD1 221930Z 14002KT 24/16 A30 RMK A01 T02350161  RH  063%=      5-min Rain = 0
KOD1 221931Z 18001KT 23/16 A30 RMK A01 T02340161  RH  064%=      5-min Rain = 0
KOD1 221932Z 16002KT 23/17 A30 RMK A01 T02340165  RH  065%=      5-min Rain = 0
KOD1 221933Z 18000KT 23/16 A30 RMK A01 T02340161  RH  063%=      5-min Rain = 0
KOD1 221934Z 23001KT 24/16 A30 RMK A01 T02350163  RH  064%=      5-min Rain = 0
KOD1 221935Z 22001KT 24/16 A30 RMK A01 T02360163  RH  064%=      5-min Rain = 0
KOD1 221936Z 22003KT 24/17 A30 RMK A01 T02360165  RH  065%=      5-min Rain = 0
KOD1 221937Z 21004KT 24/16 A30 RMK A01 T02360162  RH  063%=      5-min Rain = 0
KOD1 221938Z 21004KT 24/16 A30 RMK A01 T02350163  RH  064%=      5-min Rain = 0
KOD1 221939Z 21006KT 24/16 A30 RMK A01 T02350164  RH  064%=      5-min Rain = 0
KOD1 221940Z 20006KT 24/16 A30 RMK A01 T02360164  RH  064%=      5-min Rain = 0
KOD1 221941Z 21005KT 24/16 A30 RMK A01 T02370164  RH  063%=      5-min Rain = 0
KOD1 221942Z 23004KT 24/16 A30 RMK A01 T02360163  RH  064%=      5-min Rain = 0
KOD1 221943Z 24003KT 24/17 A30 RMK A01 T02350165  RH  065%=      5-min Rain = 0
KOD1 221944Z 27001KT 23/16 A30 RMK A01 T02340163  RH  064%=      5-min Rain = 0
KOD1 221945Z 25002KT 24/17 A30 RMK A01 T02350166  RH  065%=      5-min Rain = 0
KOD1 221946Z 23002KT 24/17 A30 RMK A01 T02360167  RH  065%=      5-min Rain = 0
KOD1 221947Z 20005KT 24/16 A30 RMK A01 T02360163  RH  064%=      5-min Rain = 0
KOD1 221948Z 17006KT 24/16 A30 RMK A01 T02370163  RH  063%=      5-min Rain = 0
KOD1 221949Z 19004KT 24/16 A30 RMK A01 T02370162  RH  062%=      5-min Rain = 0
KOD1 221950Z 19004KT 24/16 A30 RMK A01 T02380164  RH  063%=      5-min Rain = 0
KOD1 221951Z 23007KT 24/16 A30 RMK A01 T02380164  RH  063%=      5-min Rain = 0
KOD1 221952Z 21007KT 24/16 A30 RMK A01 T02370161  RH  063%=      5-min Rain = 0
KOD1 221953Z 21006KT 24/16 A30 RMK A01 T02370161  RH  062%=      5-min Rain = 0
KOD1 221954Z 20006KT 24/16 A30 RMK A01 T02360160  RH  063%=      5-min Rain = 0
KOD1 221955Z 20005KT 24/16 A30 RMK A01 T02350159  RH  062%=      5-min Rain = 0
KOD1 221956Z 20004KT 23/16 A30 RMK A01 T02340159  RH  063%=      5-min Rain = 0
KOD1 221957Z 22005KT 23/16 A30 RMK A01 T02340159  RH  063%=      5-min Rain = 0
KOD1 221958Z 22006KT 23/16 A30 RMK A01 T02330160  RH  063%=      5-min Rain = 0
KOD1 221959Z 21006KT 23/16 A30 RMK A01 T02330158  RH  063%=      5-min Rain = 0
KOD1 222000Z 23005KT 23/16 A30 RMK A01 T02320156  RH  062%=      5-min Rain = 0
KOD1 222001Z 21005KT 23/16 A30 RMK A01 T02310157  RH  063%=      5-min Rain = 0
KOD1 222002Z 21006KT 23/16 A30 RMK A01 T02310157  RH  063%=      5-min Rain = 0
KOD1 222003Z 20005KT 23/16 A30 RMK A01 T02320158  RH  063%=      5-min Rain = 0
KOD1 222004Z 23005KT 23/16 A30 RMK A01 T02320161  RH  064%=      5-min Rain = 0
KOD1 222005Z 23006KT 23/16 A30 RMK A01 T02330162  RH  064%=      5-min Rain = 0
KOD1 222006Z 22006KT 23/16 A30 RMK A01 T02330163  RH  065%=      5-min Rain = 0
KOD1 222007Z 22005KT 23/16 A30 RMK A01 T02330161  RH  064%=      5-min Rain = 0
KOD1 222008Z 21005KT 23/16 A30 RMK A01 T02340163  RH  064%=      5-min Rain = 0
KOD1 222009Z 22005KT 23/16 A30 RMK A01 T02340162  RH  064%=      5-min Rain = 0
KOD1 222010Z 21006KT 23/16 A30 RMK A01 T02340161  RH  063%=      5-min Rain = 0
KOD1 222011Z 20005KT 23/16 A30 RMK A01 T02340158  RH  063%=      5-min Rain = 0
KOD1 222012Z 21006KT 23/16 A30 RMK A01 T02340160  RH  063%=      5-min Rain = 0
KOD1 222013Z 23006KT 23/16 A30 RMK A01 T02340161  RH  064%=      5-min Rain = 0
KOD1 222014Z 24006KT 23/16 A30 RMK A01 T02330159  RH  063%=      5-min Rain = 0
KOD1 222015Z 24005KT 23/16 A30 RMK A01 T02320160  RH  064%=      5-min Rain = 0
KOD1 222016Z 24004KT 23/16 A30 RMK A01 T02320161  RH  064%=      5-min Rain = 0
KOD1 222017Z 23005KT 23/17 A30 RMK A01 T02320165  RH  066%=      5-min Rain = 0
KOD1 222018Z 22005KT 23/16 A30 RMK A01 T02320158  RH  063%=      5-min Rain = 0
KOD1 222019Z 22005KT 23/16 A30 RMK A01 T02310156  RH  063%=      5-min Rain = 0
KOD1 222020Z 21004KT 23/16 A30 RMK A01 T02310157  RH  063%=      5-min Rain = 0
KOD1 222021Z 21006KT 23/16 A30 RMK A01 T02310156  RH  063%=      5-min Rain = 0
KOD1 222022Z 23006KT 23/16 A30 RMK A01 T02310157  RH  063%=      5-min Rain = 0
KOD1 222023Z 23006KT 23/16 A30 RMK A01 T02310158  RH  063%=      5-min Rain = 0
KOD1 222024Z 23005KT 23/16 A30 RMK A01 T02300157  RH  063%=      5-min Rain = 0
KOD1 222025Z 25005KT 23/16 A30 RMK A01 T02300158  RH  064%=      5-min Rain = 0
KOD1 222026Z 25005KT 23/16 A30 RMK A01 T02300159  RH  064%=      5-min Rain = 0
KOD1 222027Z 24005KT 23/16 A30 RMK A01 T02300156  RH  063%=      5-min Rain = 0
KOD1 222028Z 24003KT 23/16 A30 RMK A01 T02300158  RH  064%=      5-min Rain = 0
KOD1 222029Z 25003KT 23/16 A30 RMK A01 T02300156  RH  063%=      5-min Rain = 0
KOD1 222030Z 28003KT 23/16 A30 RMK A01 T02300160  RH  065%=      5-min Rain = 0
KOD1 222031Z 28003KT 23/16 A30 RMK A01 T02310161  RH  064%=      5-min Rain = 0
KOD1 222032Z 26002KT 23/16 A30 RMK A01 T02320162  RH  065%=      5-min Rain = 0
KOD1 222033Z 26003KT 23/16 A30 RMK A01 T02330163  RH  065%=      5-min Rain = 0
KOD1 222034Z 26003KT 23/16 A30 RMK A01 T02330162  RH  064%=      5-min Rain = 0
KOD1 222035Z 24004KT 23/16 A30 RMK A01 T02320164  RH  065%=      5-min Rain = 0
KOD1 222036Z 25004KT 23/16 A30 RMK A01 T02320159  RH  063%=      5-min Rain = 0
KOD1 222037Z 26003KT 23/16 A30 RMK A01 T02310156  RH  063%=      5-min Rain = 0
KOD1 222038Z 26004KT 23/16 A30 RMK A01 T02310163  RH  065%=      5-min Rain = 0
KOD1 222039Z 26005KT 23/16 A30 RMK A01 T02310160  RH  064%=      5-min Rain = 0
KOD1 222040Z 26005KT 23/16 A30 RMK A01 T02310161  RH  065%=      5-min Rain = 0
KOD1 222041Z 26004KT 23/16 A30 RMK A01 T02310159  RH  064%=      5-min Rain = 0
KOD1 222042Z 27003KT 23/16 A30 RMK A01 T02300157  RH  063%=      5-min Rain = 0
KOD1 222043Z 25005KT 23/16 A30 RMK A01 T02300159  RH  064%=      5-min Rain = 0
KOD1 222044Z 26005KT 23/16 A30 RMK A01 T02300161  RH  065%=      5-min Rain = 0
KOD1 222045Z 27004KT 23/16 A30 RMK A01 T02300160  RH  065%=      5-min Rain = 0
KOD1 222046Z 27003KT 23/16 A30 RMK A01 T02310162  RH  065%=      5-min Rain = 0
KOD1 222047Z 27004KT 23/16 A30 RMK A01 T02310163  RH  066%=      5-min Rain = 0
KOD1 222048Z 29003KT 23/16 A30 RMK A01 T02320163  RH  065%=      5-min Rain = 0
KOD1 222049Z 29003KT 23/16 A30 RMK A01 T02320160  RH  064%=      5-min Rain = 0
KOD1 222050Z 27004KT 23/16 A30 RMK A01 T02330162  RH  064%=      5-min Rain = 0
KOD1 222051Z 26004KT 23/16 A30 RMK A01 T02330160  RH  064%=      5-min Rain = 0
KOD1 222052Z 26003KT 23/16 A30 RMK A01 T02330161  RH  064%=      5-min Rain = 0
KOD1 222053Z 26003KT 23/16 A30 RMK A01 T02330160  RH  064%=      5-min Rain = 0
KOD1 222054Z 28003KT 23/16 A30 RMK A01 T02330160  RH  063%=      5-min Rain = 0
KOD1 222055Z 29003KT 23/16 A30 RMK A01 T02330160  RH  063%=      5-min Rain = 0
KOD1 222056Z 29003KT 23/16 A30 RMK A01 T02330157  RH  062%=      5-min Rain = 0
KOD1 222057Z 31003KT 23/16 A30 RMK A01 T02330157  RH  062%=      5-min Rain = 0
KOD1 222058Z 31003KT 23/16 A30 RMK A01 T02320156  RH  062%=      5-min Rain = 0
KOD1 222059Z 31003KT 23/16 A30 RMK A01 T02320158  RH  063%=      5-min Rain = 0
KOD1 222100Z 28003KT 23/16 A30 RMK A01 T02330158  RH  063%=      5-min Rain = 0
KOD1 222101Z 30003KT 23/16 A30 RMK A01 T02330160  RH  064%=      5-min Rain = 0
KOD1 222102Z 29003KT 23/16 A30 RMK A01 T02330160  RH  063%=      5-min Rain = 0
KOD1 222103Z 31003KT 23/16 A30 RMK A01 T02330160  RH  064%=      5-min Rain = 0
KOD1 222104Z 32004KT 23/16 A30 RMK A01 T02340161  RH  064%=      5-min Rain = 0
KOD1 222105Z 31003KT 23/16 A30 RMK A01 T02330158  RH  063%=      5-min Rain = 0
KOD1 222106Z 31003KT 23/16 A30 RMK A01 T02320159  RH  063%=      5-min Rain = 0
KOD1 222107Z 32004KT 23/16 A30 RMK A01 T02320160  RH  064%=      5-min Rain = 0
KOD1 222108Z 32003KT 23/16 A30 RMK A01 T02320160  RH  064%=      5-min Rain = 0
KOD1 222109Z 31003KT 23/16 A30 RMK A01 T02320160  RH  064%=      5-min Rain = 0
KOD1 222110Z 31002KT 23/16 A30 RMK A01 T02320159  RH  063%=      5-min Rain = 0
KOD1 222111Z 31002KT 23/16 A30 RMK A01 T02320157  RH  063%=      5-min Rain = 0
KOD1 222112Z 31003KT 23/16 A30 RMK A01 T02320159  RH  064%=      5-min Rain = 0
KOD1 222113Z 32002KT 23/16 A30 RMK A01 T02320160  RH  064%=      5-min Rain = 0
KOD1 222114Z 33002KT 23/16 A30 RMK A01 T02320159  RH  063%=      5-min Rain = 0
KOD1 222115Z 33002KT 23/16 A30 RMK A01 T02320157  RH  063%=      5-min Rain = 0
KOD1 222116Z 33002KT 23/16 A30 RMK A01 T02320160  RH  064%=      5-min Rain = 0
KOD1 222117Z 34002KT 23/16 A30 RMK A01 T02320160  RH  064%=      5-min Rain = 0
KOD1 222118Z 01003KT 23/16 A30 RMK A01 T02320161  RH  064%=      5-min Rain = 0
KOD1 222119Z 01003KT 23/16 A30 RMK A01 T02320161  RH  064%=      5-min Rain = 0
KOD1 222120Z 01003KT 23/16 A30 RMK A01 T02320157  RH  063%=      5-min Rain = 0
KOD1 222121Z 35003KT 23/16 A30 RMK A01 T02320158  RH  063%=      5-min Rain = 0
KOD1 222122Z 00004KT 23/16 A30 RMK A01 T02320161  RH  064%=      5-min Rain = 0
KOD1 222123Z 36004KT 23/16 A2999 RMK A01 T02320159  RH  063%=      5-min Rain = 0
KOD1 222124Z 01004KT 23/16 A2999 RMK A01 T02330161  RH  064%=      5-min Rain = 0
KOD1 222125Z 02004KT 23/16 A2999 RMK A01 T02330162  RH  064%=      5-min Rain = 0
KOD1 222126Z 03003KT 23/16 A2999 RMK A01 T02340162  RH  064%=      5-min Rain = 0
KOD1 222127Z 02004KT 24/16 A30 RMK A01 T02350163  RH  064%=      5-min Rain = 0
KOD1 222128Z 02004KT 24/16 A30 RMK A01 T02350164  RH  064%=      5-min Rain = 0
KOD1 222129Z 02003KT 24/17 A2999 RMK A01 T02360166  RH  065%=      5-min Rain = 0
KOD1 222130Z 01003KT 24/17 A2999 RMK A01 T02370167  RH  065%=      5-min Rain = 0
KOD1 222131Z 00003KT 24/16 A2999 RMK A01 T02370163  RH  063%=      5-min Rain = 0
KOD1 222132Z 01005KT 24/17 A2999 RMK A01 T02370165  RH  064%=      5-min Rain = 0
KOD1 222133Z 01004KT 24/16 A2999 RMK A01 T02370162  RH  063%=      5-min Rain = 0
KOD1 222134Z 01003KT 24/16 A2999 RMK A01 T02360162  RH  063%=      5-min Rain = 0
KOD1 222135Z 03004KT 24/16 A2999 RMK A01 T02370163  RH  063%=      5-min Rain = 0
KOD1 222136Z 03005KT 24/16 A2999 RMK A01 T02370164  RH  064%=      5-min Rain = 0
KOD1 222137Z 04004KT 24/16 A2999 RMK A01 T02370164  RH  064%=      5-min Rain = 0
KOD1 222138Z 03004KT 24/17 A2999 RMK A01 T02370166  RH  064%=      5-min Rain = 0
KOD1 222139Z 01006KT 24/17 A2999 RMK A01 T02380167  RH  064%=      5-min Rain = 0
KOD1 222140Z 01005KT 24/17 A2999 RMK A01 T02380165  RH  064%=      5-min Rain = 0
KOD1 222141Z 02004KT 24/16 A2999 RMK A01 T02370163  RH  063%=      5-min Rain = 0
KOD1 222142Z 01004KT 24/17 A2999 RMK A01 T02380167  RH  065%=      5-min Rain = 0
KOD1 222143Z 01004KT 24/17 A2999 RMK A01 T02380166  RH  064%=      5-min Rain = 0
KOD1 222144Z 01005KT 24/17 A2999 RMK A01 T02380166  RH  064%=      5-min Rain = 0
KOD1 222145Z 02004KT 24/17 A2999 RMK A01 T02380166  RH  064%=      5-min Rain = 0
KOD1 222146Z 01005KT 24/17 A2999 RMK A01 T02390168  RH  064%=      5-min Rain = 0
KOD1 222147Z 03005KT 24/17 A2999 RMK A01 T02390166  RH  064%=      5-min Rain = 0
KOD1 222148Z 03004KT 24/17 A2999 RMK A01 T02390165  RH  063%=      5-min Rain = 0
KOD1 222149Z 00005KT 24/17 A2999 RMK A01 T02390167  RH  064%=      5-min Rain = 0
KOD1 222150Z 01008KT 24/17 A2999 RMK A01 T02380168  RH  065%=      5-min Rain = 0
KOD1 222151Z 02012KT 24/17 A2999 RMK A01 T02350172  RH  068%=      5-min Rain = 0
KOD1 222152Z 03010KT 23/17 A2999 RMK A01 T02290174  RH  071%=      5-min Rain = 0
KOD1 222153Z 03010G15KT 23/18 A2999 RMK A01 T02270176  RH  073%=      5-min Rain = 0
KOD1 222154Z 03014KT 23/17 A2999 RMK A01 T02250174  RH  073%=      5-min Rain = 0
KOD1 222155Z 03013KT 22/17 A2999 RMK A01 T02240173  RH  073%=      5-min Rain = 0
KOD1 222156Z 03012KT 22/17 A2999 RMK A01 T02230173  RH  073%=      5-min Rain = 0
KOD1 222157Z 02011KT 22/17 A2999 RMK A01 T02230174  RH  074%=      5-min Rain = 0
KOD1 222158Z 02011KT 22/17 A2999 RMK A01 T02230174  RH  074%=      5-min Rain = 0
KOD1 222159Z 03011KT 22/18 A2999 RMK A01 T02230175  RH  074%=      5-min Rain = 0
KOD1 222200Z 02012KT 22/18 A2999 RMK A01 T02230175  RH  074%=      5-min Rain = 0
KOD1 222201Z 02012KT 22/17 A2999 RMK A01 T02230174  RH  074%=      5-min Rain = 0
KOD1 222202Z 02013KT 22/17 A2999 RMK A01 T02220173  RH  074%=      5-min Rain = 0
KOD1 222203Z 02012KT 22/17 A2999 RMK A01 T02220173  RH  074%=      5-min Rain = 0
KOD1 222204Z 02011KT 22/17 A2999 RMK A01 T02210173  RH  074%=      5-min Rain = 0
KOD1 222205Z 02012KT 22/17 A2999 RMK A01 T02220174  RH  074%=      5-min Rain = 0
KOD1 222206Z 03013KT 22/17 A2999 RMK A01 T02220173  RH  074%=      5-min Rain = 0
KOD1 222207Z 03012KT 22/17 A2999 RMK A01 T02220173  RH  074%=      5-min Rain = 0
KOD1 222208Z 03013KT 22/17 A2999 RMK A01 T02210172  RH  074%=      5-min Rain = 0
KOD1 222209Z 03012KT 22/17 A2999 RMK A01 T02200172  RH  074%=      5-min Rain = 0
KOD1 222210Z 03014KT 22/17 A2999 RMK A01 T02200173  RH  074%=      5-min Rain = 0
KOD1 222211Z 03011KT 22/17 A2999 RMK A01 T02200172  RH  074%=      5-min Rain = 0
KOD1 222212Z 03011KT 22/17 A2999 RMK A01 T02210174  RH  075%=      5-min Rain = 0
KOD1 222213Z 03012KT 22/17 A30 RMK A01 T02220173  RH  074%=      5-min Rain = 0
KOD1 222214Z 03012KT 22/17 A30 RMK A01 T02220173  RH  074%=      5-min Rain = 0
KOD1 222215Z 03011KT 22/17 A30 RMK A01 T02220174  RH  074%=      5-min Rain = 0
KOD1 222216Z 02013KT 22/17 A30 RMK A01 T02220173  RH  074%=      5-min Rain = 0
KOD1 222217Z 03014KT 22/17 A30 RMK A01 T02210172  RH  073%=      5-min Rain = 0
KOD1 222218Z 03013KT 22/17 A30 RMK A01 T02210172  RH  074%=      5-min Rain = 0
KOD1 222219Z 02012KT 22/17 A30 RMK A01 T02210172  RH  074%=      5-min Rain = 0
KOD1 222220Z 02012KT 22/17 A30 RMK A01 T02200171  RH  074%=      5-min Rain = 0
KOD1 222221Z 02013KT 22/17 A30 RMK A01 T02200172  RH  074%=      5-min Rain = 0
KOD1 222222Z 02012KT 22/17 A30 RMK A01 T02200172  RH  074%=      5-min Rain = 0
KOD1 222223Z 03013KT 22/17 A30 RMK A01 T02200172  RH  074%=      5-min Rain = 0
KOD1 222224Z 03013KT 22/17 A30 RMK A01 T02200172  RH  074%=      5-min Rain = 0
KOD1 222225Z 03012KT 22/17 A30 RMK A01 T02200172  RH  074%=      5-min Rain = 0
KOD1 222226Z 03012KT 22/17 A30 RMK A01 T02200172  RH  074%=      5-min Rain = 0
KOD1 222227Z 03012KT 22/17 A30 RMK A01 T02210174  RH  075%=      5-min Rain = 0
KOD1 222228Z 02013KT 22/17 A30 RMK A01 T02200172  RH  074%=      5-min Rain = 0
KOD1 222229Z 03013KT 22/17 A30 RMK A01 T02200172  RH  074%=      5-min Rain = 0
KOD1 222230Z 03012KT 22/17 A30 RMK A01 T02200172  RH  074%=      5-min Rain = 0
KOD1 222231Z 03014KT 22/17 A30 RMK A01 T02190171  RH  074%=      5-min Rain = 0
KOD1 222232Z 03012KT 22/17 A30 RMK A01 T02190172  RH  074%=      5-min Rain = 0
KOD1 222233Z 03012KT 22/17 A30 RMK A01 T02190173  RH  075%=      5-min Rain = 0
KOD1 222234Z 02013KT 22/17 A30 RMK A01 T02200172  RH  074%=      5-min Rain = 0
KOD1 222235Z 03012KT 22/17 A30 RMK A01 T02200173  RH  075%=      5-min Rain = 0
KOD1 222236Z 03012KT 22/17 A2999 RMK A01 T02200172  RH  074%=      5-min Rain = 0
KOD1 222237Z 03010G15KT 22/18 A2999 RMK A01 T02210175  RH  075%=      5-min Rain = 0
KOD1 222238Z 03014KT 22/17 A2999 RMK A01 T02210173  RH  074%=      5-min Rain = 0
KOD1 222239Z 02014KT 22/17 A2999 RMK A01 T02200172  RH  074%=      5-min Rain = 0
KOD1 222240Z 02014KT 22/17 A2999 RMK A01 T02210173  RH  074%=      5-min Rain = 0
KOD1 222241Z 02013KT 22/17 A2999 RMK A01 T02200173  RH  074%=      5-min Rain = 0
KOD1 222242Z 02014KT 22/17 A2999 RMK A01 T02200172  RH  074%=      5-min Rain = 0
KOD1 222243Z 02012KT 22/17 A2999 RMK A01 T02200172  RH  074%=      5-min Rain = 0
KOD1 222244Z 02013G18KT 22/17 A2999 RMK A01 T02200173  RH  075%=      5-min Rain = 0
KOD1 222245Z 02015KT 22/17 A2999 RMK A01 T02190171  RH  074%=      5-min Rain = 0
KOD1 222246Z 02013KT 22/17 A2999 RMK A01 T02190172  RH  075%=      5-min Rain = 0
KOD1 222247Z 02014KT 22/17 A2999 RMK A01 T02190172  RH  075%=      5-min Rain = 0
KOD1 222248Z 02014KT 22/17 A2999 RMK A01 T02180172  RH  075%=      5-min Rain = 0
KOD1 222249Z 02014KT 22/17 A2999 RMK A01 T02190172  RH  075%=      5-min Rain = 0
KOD1 222250Z 02013KT 22/17 A2999 RMK A01 T02180172  RH  075%=      5-min Rain = 0
KOD1 222251Z 02012KT 22/17 A2999 RMK A01 T02190173  RH  075%=      5-min Rain = 0
KOD1 222252Z 01014KT 22/17 A2999 RMK A01 T02180172  RH  075%=      5-min Rain = 0
KOD1 222253Z 02014KT 22/17 A2999 RMK A01 T02180172  RH  075%=      5-min Rain = 0
KOD1 222254Z 01013KT 22/17 A2999 RMK A01 T02170172  RH  075%=      5-min Rain = 0
KOD1 222255Z 02013KT 22/17 A30 RMK A01 T02170172  RH  075%=      5-min Rain = 0
KOD1 222256Z 02012KT 22/17 A30 RMK A01 T02180172  RH  075%=      5-min Rain = 0
KOD1 222257Z 03013KT 22/17 A30 RMK A01 T02170171  RH  075%=      5-min Rain = 0
KOD1 222258Z 02013KT 22/17 A30 RMK A01 T02170171  RH  075%=      5-min Rain = 0
KOD1 222259Z 02010KT 22/17 A2999 RMK A01 T02170172  RH  075%=      5-min Rain = 0
KOD1 222300Z 03011KT 22/17 A2999 RMK A01 T02190174  RH  076%=      5-min Rain = 0
KOD1 222301Z 03014KT 22/17 A2999 RMK A01 T02190172  RH  075%=      5-min Rain = 0
KOD1 222302Z 03014KT 22/17 A2999 RMK A01 T02180171  RH  075%=      5-min Rain = 0
KOD1 222303Z 03015KT 22/17 A2999 RMK A01 T02180171  RH  075%=      5-min Rain = 0
KOD1 222304Z 03015KT 22/17 A2999 RMK A01 T02170171  RH  075%=      5-min Rain = 0
KOD1 222305Z 03012KT 22/17 A2999 RMK A01 T02180172  RH  075%=      5-min Rain = 0
KOD1 222306Z 03013KT 22/17 A2999 RMK A01 T02180172  RH  075%=      5-min Rain = 0
KOD1 222307Z 03011KT 22/17 A2999 RMK A01 T02190172  RH  075%=      5-min Rain = 0
KOD1 222308Z 03010KT 22/18 A2999 RMK A01 T02200175  RH  076%=      5-min Rain = 0
KOD1 222309Z 02012KT 22/17 A2999 RMK A01 T02200173  RH  075%=      5-min Rain = 0
KOD1 222310Z 03012KT 22/17 A2999 RMK A01 T02190173  RH  075%=      5-min Rain = 0
KOD1 222311Z 02013KT 22/17 A2999 RMK A01 T02180172  RH  075%=      5-min Rain = 0
KOD1 222312Z 02011KT 22/17 A2999 RMK A01 T02180172  RH  075%=      5-min Rain = 0
KOD1 222313Z 02010KT 22/17 A30 RMK A01 T02180173  RH  076%=      5-min Rain = 0
KOD1 222314Z 02011KT 22/17 A30 RMK A01 T02170172  RH  076%=      5-min Rain = 0
KOD1 222315Z 02011KT 22/17 A30 RMK A01 T02170172  RH  076%=      5-min Rain = 0
KOD1 222316Z 02012KT 22/17 A30 RMK A01 T02160172  RH  076%=      5-min Rain = 0
KOD1 222317Z 02012KT 22/17 A30 RMK A01 T02170172  RH  076%=      5-min Rain = 0
KOD1 222318Z 02011KT 22/17 A30 RMK A01 T02160172  RH  076%=      5-min Rain = 0
KOD1 222319Z 02011KT 22/17 A30 RMK A01 T02160172  RH  076%=      5-min Rain = 0
KOD1 222320Z 02010KT 22/17 A30 RMK A01 T02150172  RH  076%=      5-min Rain = 0
KOD1 222321Z 03010KT 22/17 A3001 RMK A01 T02150172  RH  076%=      5-min Rain = 0
KOD1 222322Z 02009KT 22/17 A3001 RMK A01 T02150172  RH  076%=      5-min Rain = 0
KOD1 222323Z 02010KT 22/17 A3001 RMK A01 T02150172  RH  076%=      5-min Rain = 0
KOD1 222324Z 02009KT 22/17 A30 RMK A01 T02150172  RH  076%=      5-min Rain = 0
KOD1 222325Z 02010KT 22/17 A30 RMK A01 T02150172  RH  077%=      5-min Rain = 0
KOD1 222326Z 02009KT 22/17 A30 RMK A01 T02150172  RH  077%=      5-min Rain = 0
KOD1 222327Z 02008KT 22/17 A30 RMK A01 T02150172  RH  076%=      5-min Rain = 0
KOD1 222328Z 02008KT 22/17 A30 RMK A01 T02160173  RH  077%=      5-min Rain = 0
KOD1 222329Z 02011KT 22/17 A30 RMK A01 T02160173  RH  076%=      5-min Rain = 0
KOD1 222330Z 03012KT 22/17 A30 RMK A01 T02160173  RH  076%=      5-min Rain = 0
KOD1 222331Z 03010KT 22/17 A30 RMK A01 T02160172  RH  076%=      5-min Rain = 0
KOD1 222332Z 03010KT 22/17 A30 RMK A01 T02160173  RH  077%=      5-min Rain = 0
KOD1 222333Z 03011KT 22/17 A30 RMK A01 T02160173  RH  076%=      5-min Rain = 0
KOD1 222334Z 03011KT 22/17 A30 RMK A01 T02160173  RH  076%=      5-min Rain = 0
KOD1 222335Z 03010KT 22/17 A30 RMK A01 T02160173  RH  076%=      5-min Rain = 0
KOD1 222336Z 02010KT 22/17 A30 RMK A01 T02160173  RH  076%=      5-min Rain = 0
KOD1 222337Z 03010KT 22/17 A30 RMK A01 T02160173  RH  076%=      5-min Rain = 0
KOD1 222338Z 03010KT 22/17 A30 RMK A01 T02160173  RH  076%=      5-min Rain = 0
KOD1 222339Z 03010KT 22/17 A30 RMK A01 T02160173  RH  077%=      5-min Rain = 0
KOD1 222340Z 02010KT 22/17 A30 RMK A01 T02160173  RH  077%=      5-min Rain = 0
KOD1 222341Z 03008KT 22/17 A30 RMK A01 T02160174  RH  077%=      5-min Rain = 0
KOD1 222342Z 03008KT 22/18 A30 RMK A01 T02160175  RH  077%=      5-min Rain = 0
KOD1 222343Z 03008KT 22/17 A30 RMK A01 T02160174  RH  077%=      5-min Rain = 0
KOD1 222344Z 03009KT 22/17 A30 RMK A01 T02170174  RH  077%=      5-min Rain = 0
KOD1 222345Z 03009KT 22/17 A30 RMK A01 T02170174  RH  077%=      5-min Rain = 0
KOD1 222346Z 03009KT 22/17 A30 RMK A01 T02160174  RH  077%=      5-min Rain = 0
KOD1 222347Z 03009KT 22/18 A30 RMK A01 T02160175  RH  077%=      5-min Rain = 0
KOD1 222348Z 03010KT 22/17 A30 RMK A01 T02160174  RH  077%=      5-min Rain = 0
KOD1 222349Z 03010KT 22/17 A30 RMK A01 T02150173  RH  077%=      5-min Rain = 0
KOD1 222350Z 02008KT 22/17 A30 RMK A01 T02150174  RH  077%=      5-min Rain = 0
KOD1 222351Z 02008KT 22/17 A30 RMK A01 T02150174  RH  077%=      5-min Rain = 0
KOD1 222352Z 02008KT 22/18 A30 RMK A01 T02150175  RH  078%=      5-min Rain = 0
KOD1 222353Z 02009KT 22/17 A30 RMK A01 T02150174  RH  078%=      5-min Rain = 0
KOD1 222354Z 03009KT 22/17 A30 RMK A01 T02150174  RH  078%=      5-min Rain = 0
KOD1 222355Z 03009KT 22/17 A30 RMK A01 T02150174  RH  078%=      5-min Rain = 0
KOD1 222356Z 03009KT 22/17 A30 RMK A01 T02150174  RH  078%=      5-min Rain = 0
KOD1 222357Z 02009KT 22/18 A30 RMK A01 T02150175  RH  078%=      5-min Rain = 0
KOD1 222358Z 03009KT 22/18 A30 RMK A01 T02150175  RH  078%=      5-min Rain = 0
KOD1 222359Z 03010KT 21/18 A30 RMK A01 T02140175  RH  078%=      5-min Rain = 0
KOD1 230000Z 03009KT 22/18 A30 RMK A01 T02150175  RH  078%=      5-min Rain = 0
KOD1 230001Z 02008KT 22/18 A30 RMK A01 T02150175  RH  078%=      5-min Rain = 0
KOD1 230002Z 03009KT 22/18 A30 RMK A01 T02150175  RH  078%=      5-min Rain = 0
KOD1 230003Z 03009KT 22/18 A30 RMK A01 T02150175  RH  078%=      5-min Rain = 0
KOD1 230004Z 02009KT 21/18 A30 RMK A01 T02140175  RH  078%=      5-min Rain = 0
KOD1 230005Z 02009KT 22/18 A30 RMK A01 T02150175  RH  078%=      5-min Rain = 0
KOD1 230006Z 02009KT 21/18 A30 RMK A01 T02140175  RH  078%=      5-min Rain = 0
KOD1 230007Z 03009KT 22/18 A30 RMK A01 T02150175  RH  078%=      5-min Rain = 0
KOD1 230008Z 03010KT 22/18 A30 RMK A01 T02150175  RH  078%=      5-min Rain = 0
KOD1 230009Z 03007KT 22/18 A30 RMK A01 T02150176  RH  078%=      5-min Rain = 0
KOD1 230010Z 03007KT 22/18 A30 RMK A01 T02150176  RH  078%=      5-min Rain = 0
KOD1 230011Z 03009KT 22/18 A30 RMK A01 T02150176  RH  078%=      5-min Rain = 0
KOD1 230012Z 03008KT 22/18 A30 RMK A01 T02150175  RH  078%=      5-min Rain = 0
KOD1 230013Z 04009KT 22/18 A2999 RMK A01 T02150176  RH  078%=      5-min Rain = 0
KOD1 230014Z 04009KT 22/18 A30 RMK A01 T02150175  RH  078%=      5-min Rain = 0
KOD1 230015Z 04007KT 22/18 A30 RMK A01 T02150176  RH  078%=      5-min Rain = 0
KOD1 230016Z 03007KT 22/18 A30 RMK A01 T02150176  RH  079%=      5-min Rain = 0
KOD1 230017Z 03008KT 22/18 A30 RMK A01 T02150176  RH  078%=      5-min Rain = 0
KOD1 230018Z 03008KT 21/18 A30 RMK A01 T02140176  RH  079%=      5-min Rain = 0
KOD1 230019Z 03010KT 22/18 A30 RMK A01 T02150176  RH  078%=      5-min Rain = 0
KOD1 230020Z 04010KT 22/18 A30 RMK A01 T02150175  RH  078%=      5-min Rain = 0
KOD1 230021Z 03009KT 22/18 A30 RMK A01 T02150175  RH  078%=      5-min Rain = 0
KOD1 230022Z 03009KT 22/18 A30 RMK A01 T02150175  RH  078%=      5-min Rain = 0
KOD1 230023Z 03009KT 21/18 A30 RMK A01 T02140175  RH  078%=      5-min Rain = 0
KOD1 230024Z 03008KT 21/18 A30 RMK A01 T02140175  RH  078%=      5-min Rain = 0
KOD1 230025Z 02007KT 21/18 A30 RMK A01 T02140176  RH  079%=      5-min Rain = 0
KOD1 230026Z 02008KT 21/18 A30 RMK A01 T02140176  RH  079%=      5-min Rain = 0
KOD1 230027Z 03009KT 21/18 A30 RMK A01 T02140175  RH  079%=      5-min Rain = 0
KOD1 230028Z 02009KT 21/18 A30 RMK A01 T02130175  RH  078%=      5-min Rain = 0
KOD1 230029Z 03008KT 21/18 A30 RMK A01 T02140175  RH  079%=      5-min Rain = 0
KOD1 230030Z 02009KT 21/18 A30 RMK A01 T02130175  RH  079%=      5-min Rain = 0
KOD1 230031Z 02009KT 21/18 A30 RMK A01 T02130175  RH  079%=      5-min Rain = 0
KOD1 230032Z 02008KT 21/18 A30 RMK A01 T02130175  RH  079%=      5-min Rain = 0
KOD1 230033Z 02007KT 21/18 A30 RMK A01 T02130176  RH  079%=      5-min Rain = 0
KOD1 230034Z 02007KT 21/18 A30 RMK A01 T02130176  RH  079%=      5-min Rain = 0
KOD1 230035Z 02007KT 21/18 A30 RMK A01 T02120175  RH  079%=      5-min Rain = 0
KOD1 230036Z 02007KT 21/18 A30 RMK A01 T02120175  RH  079%=      5-min Rain = 0
KOD1 230037Z 02007KT 21/18 A30 RMK A01 T02120176  RH  080%=      5-min Rain = 0
KOD1 230038Z 02007KT 21/18 A30 RMK A01 T02120175  RH  080%=      5-min Rain = 0
KOD1 230039Z 02006KT 21/18 A30 RMK A01 T02110175  RH  080%=      5-min Rain = 0
KOD1 230040Z 02006KT 21/18 A30 RMK A01 T02110175  RH  080%=      5-min Rain = 0
KOD1 230041Z 03006KT 21/18 A30 RMK A01 T02110176  RH  080%=      5-min Rain = 0
KOD1 230042Z 03006KT 21/18 A30 RMK A01 T02110175  RH  080%=      5-min Rain = 0
KOD1 230043Z 03007KT 21/18 A30 RMK A01 T02110175  RH  080%=      5-min Rain = 0
KOD1 230044Z 03006KT 21/18 A30 RMK A01 T02110175  RH  080%=      5-min Rain = 0
KOD1 230045Z 03006KT 21/18 A30 RMK A01 T02110176  RH  080%=      5-min Rain = 0
KOD1 230046Z 03006KT 21/18 A30 RMK A01 T02110176  RH  080%=      5-min Rain = 0
KOD1 230047Z 03005KT 21/18 A30 RMK A01 T02110176  RH  080%=      5-min Rain = 0
KOD1 230048Z 04005KT 21/18 A30 RMK A01 T02110176  RH  081%=      5-min Rain = 0
KOD1 230049Z 04005KT 21/18 A30 RMK A01 T02100176  RH  081%=      5-min Rain = 0
KOD1 230050Z 04005KT 21/18 A30 RMK A01 T02100176  RH  081%=      5-min Rain = 0
KOD1 230051Z 04005KT 21/18 A30 RMK A01 T02100176  RH  081%=      5-min Rain = 0
KOD1 230052Z 04005KT 21/18 A30 RMK A01 T02100176  RH  081%=      5-min Rain = 0
KOD1 230053Z 04005KT 21/18 A30 RMK A01 T02100177  RH  081%=      5-min Rain = 0
KOD1 230054Z 04005KT 21/18 A30 RMK A01 T02090176  RH  081%=      5-min Rain = 0
KOD1 230055Z 04005KT 21/18 A30 RMK A01 T02090176  RH  081%=      5-min Rain = 0
KOD1 230056Z 04005KT 21/18 A30 RMK A01 T02090176  RH  081%=      5-min Rain = 0
KOD1 230057Z 04005KT 21/18 A2999 RMK A01 T02090177  RH  082%=      5-min Rain = 0
KOD1 230058Z 04006KT 21/18 A2999 RMK A01 T02090177  RH  082%=      5-min Rain = 0
KOD1 230059Z 05006KT 21/18 A2999 RMK A01 T02090176  RH  081%=      5-min Rain = 0
KOD1 230100Z 05005KT 21/18 A2999 RMK A01 T02090177  RH  082%=      5-min Rain = 0
KOD1 230101Z 05005KT 21/18 A2999 RMK A01 T02090177  RH  082%=      5-min Rain = 0
KOD1 230102Z 05005KT 21/18 A2999 RMK A01 T02090177  RH  082%=      5-min Rain = 0
KOD1 230103Z 05005KT 21/18 A2999 RMK A01 T02090177  RH  082%=      5-min Rain = 0
KOD1 230104Z 05005KT 21/18 A2999 RMK A01 T02090177  RH  082%=      5-min Rain = 0
KOD1 230105Z 05005KT 21/18 A2999 RMK A01 T02090177  RH  082%=      5-min Rain = 0
KOD1 230106Z 05004KT 21/18 A2999 RMK A01 T02090177  RH  082%=      5-min Rain = 0
KOD1 230107Z 05005KT 21/18 A2999 RMK A01 T02090177  RH  082%=      5-min Rain = 0
KOD1 230108Z 05005KT 21/18 A2999 RMK A01 T02090177  RH  082%=      5-min Rain = 0
KOD1 230109Z 05005KT 21/18 A30 RMK A01 T02080177  RH  082%=      5-min Rain = 0
KOD1 230110Z 05004KT 21/18 A30 RMK A01 T02080177  RH  082%=      5-min Rain = 0
KOD1 230111Z 06004KT 21/18 A30 RMK A01 T02080177  RH  083%=      5-min Rain = 0
KOD1 230112Z 06004KT 21/18 A30 RMK A01 T02080177  RH  083%=      5-min Rain = 0
KOD1 230113Z 06004KT 21/18 A30 RMK A01 T02080177  RH  083%=      5-min Rain = 0
KOD1 230114Z 05005KT 21/18 A2999 RMK A01 T02070177  RH  083%=      5-min Rain = 0
KOD1 230115Z 05004KT 21/18 A2999 RMK A01 T02070178  RH  083%=      5-min Rain = 0
KOD1 230116Z 05005KT 21/18 A2999 RMK A01 T02070178  RH  083%=      5-min Rain = 0
KOD1 230117Z 06005KT 21/18 A2999 RMK A01 T02070178  RH  084%=      5-min Rain = 0
KOD1 230118Z 06005KT 21/18 A2999 RMK A01 T02060178  RH  084%=      5-min Rain = 0
KOD1 230119Z 07005KT 21/18 A2999 RMK A01 T02060178  RH  084%=      5-min Rain = 0
KOD1 230120Z 07004KT 21/18 A2999 RMK A01 T02060178  RH  084%=      5-min Rain = 0
KOD1 230121Z 07003KT 21/18 A2999 RMK A01 T02060178  RH  084%=      5-min Rain = 0
KOD1 230122Z 07004KT 21/18 A2999 RMK A01 T02050178  RH  084%=      5-min Rain = 0
KOD1 230123Z 07003KT 21/18 A2999 RMK A01 T02050178  RH  084%=      5-min Rain = 0
KOD1 230124Z 07004KT 21/18 A2999 RMK A01 T02050178  RH  084%=      5-min Rain = 0
KOD1 230125Z 06004KT 21/18 A2999 RMK A01 T02050178  RH  085%=      5-min Rain = 0
KOD1 230126Z 07004KT 21/18 A2999 RMK A01 T02050178  RH  085%=      5-min Rain = 0
KOD1 230127Z 07004KT 21/18 A2999 RMK A01 T02050178  RH  085%=      5-min Rain = 0
KOD1 230128Z 07004KT 20/18 A2999 RMK A01 T02040178  RH  085%=      5-min Rain = 0
KOD1 230129Z 07004KT 20/18 A2999 RMK A01 T02040177  RH  085%=      5-min Rain = 0
KOD1 230130Z 07003KT 20/18 A2999 RMK A01 T02040177  RH  084%=      5-min Rain = 0
KOD1 230131Z 07003KT 21/18 A2999 RMK A01 T02050177  RH  084%=      5-min Rain = 0
KOD1 230132Z 07003KT 21/18 A2999 RMK A01 T02050177  RH  084%=      5-min Rain = 0
KOD1 230133Z 07002KT 21/18 A2999 RMK A01 T02050177  RH  084%=      5-min Rain = 0
KOD1 230134Z 07002KT 21/18 A2999 RMK A01 T02060177  RH  084%=      5-min Rain = 0
KOD1 230135Z 06003KT 21/18 A2999 RMK A01 T02060177  RH  083%=      5-min Rain = 0
KOD1 230136Z 06003KT 21/18 A2998 RMK A01 T02060177  RH  083%=      5-min Rain = 0
KOD1 230137Z 06004KT 21/18 A2998 RMK A01 T02060177  RH  083%=      5-min Rain = 0
KOD1 230138Z 06004KT 21/18 A2998 RMK A01 T02060177  RH  083%=      5-min Rain = 0
KOD1 230139Z 06005KT 21/18 A2998 RMK A01 T02060177  RH  083%=      5-min Rain = 0
KOD1 230140Z 06005KT 21/18 A2998 RMK A01 T02050177  RH  084%=      5-min Rain = 0
KOD1 230141Z 06005KT 21/18 A2998 RMK A01 T02050177  RH  084%=      5-min Rain = 0
KOD1 230142Z 06005KT 20/18 A2998 RMK A01 T02040177  RH  084%=      5-min Rain = 0
KOD1 230143Z 07005KT 20/18 A2998 RMK A01 T02030177  RH  085%=      5-min Rain = 0
KOD1 230144Z 07004KT 20/18 A2998 RMK A01 T02030177  RH  085%=      5-min Rain = 0
KOD1 230145Z 08004KT 20/18 A2998 RMK A01 T02030176  RH  085%=      5-min Rain = 0
KOD1 230146Z 08004KT 20/18 A2998 RMK A01 T02030177  RH  085%=      5-min Rain = 0
KOD1 230147Z 08004KT 20/18 A2998 RMK A01 T02030176  RH  084%=      5-min Rain = 0
KOD1 230148Z 08005KT 20/18 A2998 RMK A01 T02040176  RH  084%=      5-min Rain = 0
KOD1 230149Z 08005KT 21/18 A2998 RMK A01 T02050176  RH  084%=      5-min Rain = 0
KOD1 230150Z 08004KT 21/18 A2998 RMK A01 T02060176  RH  083%=      5-min Rain = 0
KOD1 230151Z 08004KT 21/18 A2998 RMK A01 T02060176  RH  083%=      5-min Rain = 0
KOD1 230152Z 08004KT 21/18 A2998 RMK A01 T02060176  RH  083%=      5-min Rain = 0
KOD1 230153Z 09004KT 21/18 A2998 RMK A01 T02060176  RH  083%=      5-min Rain = 0
KOD1 230154Z 10004KT 21/18 A2998 RMK A01 T02060176  RH  083%=      5-min Rain = 0
KOD1 230155Z 11005KT 21/18 A2998 RMK A01 T02060176  RH  083%=      5-min Rain = 0
KOD1 230156Z 11005KT 21/18 A2998 RMK A01 T02060176  RH  083%=      5-min Rain = 0
KOD1 230157Z 11005KT 21/18 A2998 RMK A01 T02070176  RH  083%=      5-min Rain = 0
KOD1 230158Z 11005KT 21/18 A2999 RMK A01 T02070176  RH  083%=      5-min Rain = 0
KOD1 230159Z 11005KT 21/18 A2999 RMK A01 T02070176  RH  083%=      5-min Rain = 0
KOD1 230200Z 10005KT 21/18 A2999 RMK A01 T02070176  RH  083%=      5-min Rain = 0
KOD1 230201Z 11005KT 21/18 A2999 RMK A01 T02070176  RH  083%=      5-min Rain = 0
KOD1 230202Z 11006KT 21/18 A2999 RMK A01 T02070177  RH  082%=      5-min Rain = 0
KOD1 230203Z 11006KT 21/18 A2999 RMK A01 T02080176  RH  082%=      5-min Rain = 0
KOD1 230204Z 11006KT 21/18 A2999 RMK A01 T02080176  RH  082%=      5-min Rain = 0
KOD1 230205Z 11006KT 21/18 A2999 RMK A01 T02080175  RH  081%=      5-min Rain = 0
KOD1 230206Z 11006KT 21/18 A2999 RMK A01 T02090175  RH  081%=      5-min Rain = 0
KOD1 230207Z 11005KT 21/18 A2999 RMK A01 T02090175  RH  081%=      5-min Rain = 0
KOD1 230208Z 10005KT 21/18 A2999 RMK A01 T02090175  RH  081%=      5-min Rain = 0
KOD1 230209Z 11006KT 21/18 A2999 RMK A01 T02090175  RH  081%=      5-min Rain = 0
KOD1 230210Z 11006KT 21/17 A30 RMK A01 T02090174  RH  081%=      5-min Rain = 0
KOD1 230211Z 11007KT 21/17 A30 RMK A01 T02090174  RH  080%=      5-min Rain = 0
KOD1 230212Z 11007KT 21/17 A30 RMK A01 T02090174  RH  080%=      5-min Rain = 0
KOD1 230213Z 11006KT 21/17 A30 RMK A01 T02090174  RH  080%=      5-min Rain = 0
KOD1 230214Z 11007KT 21/17 A30 RMK A01 T02090174  RH  080%=      5-min Rain = 0
KOD1 230215Z 11006KT 21/17 A30 RMK A01 T02090174  RH  080%=      5-min Rain = 0
KOD1 230216Z 11006KT 21/17 A30 RMK A01 T02090174  RH  080%=      5-min Rain = 0
KOD1 230217Z 11006KT 21/17 A30 RMK A01 T02090174  RH  080%=      5-min Rain = 0
KOD1 230218Z 11007KT 21/17 A30 RMK A01 T02090174  RH  080%=      5-min Rain = 0
KOD1 230219Z 11007KT 21/17 A30 RMK A01 T02090174  RH  080%=      5-min Rain = 0
KOD1 230220Z 11007KT 21/17 A30 RMK A01 T02090174  RH  080%=      5-min Rain = 0
KOD1 230221Z 11008KT 21/17 A30 RMK A01 T02090174  RH  080%=      5-min Rain = 0
KOD1 230222Z 11008KT 21/17 A30 RMK A01 T02090174  RH  080%=      5-min Rain = 0
KOD1 230223Z 11008KT 21/17 A30 RMK A01 T02090174  RH  080%=      5-min Rain = 0
KOD1 230224Z 11007KT 21/17 A3001 RMK A01 T02090173  RH  080%=      5-min Rain = 0
KOD1 230225Z 12007KT 21/17 A3001 RMK A01 T02090174  RH  080%=      5-min Rain = 0
KOD1 230226Z 11007KT 21/17 A3001 RMK A01 T02090173  RH  080%=      5-min Rain = 0
KOD1 230227Z 11007KT 21/17 A3001 RMK A01 T02090173  RH  080%=      5-min Rain = 0
KOD1 230228Z 11008KT 21/17 A3001 RMK A01 T02100173  RH  080%=      5-min Rain = 0
KOD1 230229Z 11007KT 21/17 A3001 RMK A01 T02100174  RH  080%=      5-min Rain = 0
KOD1 230230Z 11007KT 21/17 A3001 RMK A01 T02100174  RH  080%=      5-min Rain = 0
KOD1 230231Z 11008KT 21/17 A3001 RMK A01 T02100174  RH  080%=      5-min Rain = 0
KOD1 230232Z 11008KT 21/17 A3001 RMK A01 T02090173  RH  080%=      5-min Rain = 0
KOD1 230233Z 11007KT 21/17 A3001 RMK A01 T02090173  RH  080%=      5-min Rain = 0
KOD1 230234Z 11007KT 21/17 A30 RMK A01 T02090173  RH  080%=      5-min Rain = 0
KOD1 230235Z 11007KT 21/17 A30 RMK A01 T02090173  RH  080%=      5-min Rain = 0
KOD1 230236Z 11008KT 21/17 A30 RMK A01 T02100173  RH  079%=      5-min Rain = 0
KOD1 230237Z 11007KT 21/17 A30 RMK A01 T02100173  RH  079%=      5-min Rain = 0
KOD1 230238Z 10008KT 21/17 A30 RMK A01 T02100173  RH  079%=      5-min Rain = 0
KOD1 230239Z 11008KT 21/17 A30 RMK A01 T02100173  RH  079%=      5-min Rain = 0
KOD1 230240Z 11008KT 21/17 A30 RMK A01 T02100173  RH  079%=      5-min Rain = 0
KOD1 230241Z 11008KT 21/17 A30 RMK A01 T02090173  RH  080%=      5-min Rain = 0
KOD1 230242Z 11008KT 21/17 A30 RMK A01 T02090173  RH  080%=      5-min Rain = 0
KOD1 230243Z 11008KT 21/17 A30 RMK A01 T02090173  RH  080%=      5-min Rain = 0
KOD1 230244Z 11008KT 21/17 A30 RMK A01 T02090173  RH  080%=      5-min Rain = 0
KOD1 230245Z 12008KT 21/17 A30 RMK A01 T02090173  RH  080%=      5-min Rain = 0
KOD1 230246Z 12007KT 21/17 A3001 RMK A01 T02090173  RH  080%=      5-min Rain = 0
KOD1 230247Z 12008KT 21/17 A3001 RMK A01 T02090173  RH  080%=      5-min Rain = 0
KOD1 230248Z 12008KT 21/17 A3001 RMK A01 T02090173  RH  080%=      5-min Rain = 0
KOD1 230249Z 12007KT 21/17 A3001 RMK A01 T02090173  RH  080%=      5-min Rain = 0
KOD1 230250Z 12007KT 21/17 A3001 RMK A01 T02090173  RH  080%=      5-min Rain = 0
KOD1 230251Z 12008KT 21/17 A3002 RMK A01 T02090173  RH  080%=      5-min Rain = 0
KOD1 230252Z 12008KT 21/17 A3002 RMK A01 T02090173  RH  080%=      5-min Rain = 0
KOD1 230253Z 12008KT 21/17 A3002 RMK A01 T02080173  RH  080%=      5-min Rain = 0
KOD1 230254Z 12007KT 21/17 A3002 RMK A01 T02080173  RH  080%=      5-min Rain = 0
KOD1 230255Z 13007KT 21/17 A3002 RMK A01 T02080174  RH  081%=      5-min Rain = 0
KOD1 230256Z 13007KT 21/17 A3002 RMK A01 T02070174  RH  081%=      5-min Rain = 0
KOD1 230257Z 14007KT 21/17 A3002 RMK A01 T02070174  RH  081%=      5-min Rain = 0
KOD1 230258Z 14007KT 21/17 A3003 RMK A01 T02070174  RH  081%=      5-min Rain = 0
KOD1 230259Z 14008KT 21/17 A3003 RMK A01 T02070174  RH  082%=      5-min Rain = 0
KOD1 230300Z 13009KT 21/17 A3003 RMK A01 T02070174  RH  082%=      5-min Rain = 0
KOD1 230301Z 14009KT 21/17 A3003 RMK A01 T02060174  RH  082%=      5-min Rain = 0
KOD1 230302Z 13008KT 21/18 A3003 RMK A01 T02060175  RH  082%=      5-min Rain = 0
KOD1 230303Z 13008KT 21/18 A3003 RMK A01 T02050176  RH  083%=      5-min Rain = 0
KOD1 230304Z 14009KT 21/18 A3003 RMK A01 T02050176  RH  084%=      5-min Rain = 0
KOD1 230305Z 14009KT 20/18 A3003 RMK A01 T02040176  RH  084%=      5-min Rain = 0
KOD1 230306Z 13008KT 20/18 A3003 RMK A01 T02040176  RH  084%=      5-min Rain = 0
KOD1 230307Z 14009KT 20/18 A3003 RMK A01 T02030176  RH  085%=      5-min Rain = 0
KOD1 230308Z 13009KT 20/18 A3003 RMK A01 T02030176  RH  084%=      5-min Rain = 0
KOD1 230309Z 14009KT 20/18 A3003 RMK A01 T02020176  RH  085%=      5-min Rain = 0
KOD1 230310Z 13008KT 20/18 A3003 RMK A01 T02020177  RH  086%=      5-min Rain = 0
KOD1 230311Z 13008KT 20/18 A3003 RMK A01 T02010177  RH  086%=      5-min Rain = 0.01
KOD1 230312Z 13008KT 20/18 A3003 RMK A01 T02000177  RH  087%=      5-min Rain = 0
KOD1 230313Z 13009KT 20/18 A3003 RMK A01 T01990177  RH  087%=      5-min Rain = 0
KOD1 230314Z 13007KT 20/18 A3003 RMK A01 T01990177  RH  087%=      5-min Rain = 0
KOD1 230315Z 12006KT 20/18 A3003 RMK A01 T01990177  RH  087%=      5-min Rain = 0.01
KOD1 230316Z 11006KT 20/18 A3003 RMK A01 T01980177  RH  088%=      5-min Rain = 0
KOD1 230317Z 11007KT 20/18 A3002 RMK A01 T01980177  RH  088%=      5-min Rain = 0
KOD1 230318Z 10008KT 20/18 A3002 RMK A01 T01970177  RH  088%=      5-min Rain = 0.01
KOD1 230319Z 09007KT 20/18 A3002 RMK A01 T01970177  RH  088%=      5-min Rain = 0
KOD1 230320Z 10008KT 20/18 A3002 RMK A01 T01970177  RH  088%=      5-min Rain = 0
KOD1 230321Z 11008KT 20/18 A3002 RMK A01 T01970176  RH  088%=      5-min Rain = 0
KOD1 230322Z 11007KT 20/18 A3002 RMK A01 T01970177  RH  088%=      5-min Rain = 0.01
KOD1 230323Z 11008KT 20/18 A3002 RMK A01 T01960177  RH  089%=      5-min Rain = 0
KOD1 230324Z 10008KT 20/18 A3002 RMK A01 T01960177  RH  089%=      5-min Rain = 0
KOD1 230325Z 09007KT 20/18 A3001 RMK A01 T01960177  RH  089%=      5-min Rain = 0
KOD1 230326Z 10008KT 20/18 A3001 RMK A01 T01950177  RH  089%=      5-min Rain = 0
KOD1 230327Z 10007KT 20/18 A3001 RMK A01 T01950177  RH  090%=      5-min Rain = 0.01
KOD1 230328Z 11007KT 20/18 A3001 RMK A01 T01950177  RH  090%=      5-min Rain = 0
KOD1 230329Z 11007KT 20/18 A3001 RMK A01 T01950177  RH  090%=      5-min Rain = 0
KOD1 230330Z 12007KT 20/18 A3001 RMK A01 T01950177  RH  089%=      5-min Rain = 0
KOD1 230331Z 12007KT 20/18 A3001 RMK A01 T01950178  RH  089%=      5-min Rain = 0
KOD1 230332Z 12007KT 20/18 A3001 RMK A01 T01950178  RH  090%=      5-min Rain = 0
KOD1 230333Z 13006KT 19/18 A3001 RMK A01 T01940178  RH  090%=      5-min Rain = 0
KOD1 230334Z 12006KT 19/18 A3001 RMK A01 T01940178  RH  091%=      5-min Rain = 0
KOD1 230335Z 11007KT 19/18 A3001 RMK A01 T01940178  RH  091%=      5-min Rain = 0.01
KOD1 230336Z 10007KT 19/18 A3001 RMK A01 T01930178  RH  091%=      5-min Rain = 0
KOD1 230337Z 10006KT 19/18 A30 RMK A01 T01930178  RH  091%=      5-min Rain = 0
KOD1 230338Z 10006KT 19/18 A30 RMK A01 T01930178  RH  091%=      5-min Rain = 0
KOD1 230339Z 10007KT 19/18 A30 RMK A01 T01930178  RH  091%=      5-min Rain = 0
KOD1 230340Z 10007KT 19/18 A30 RMK A01 T01930178  RH  091%=      5-min Rain = 0
KOD1 230341Z 10008KT 19/18 A30 RMK A01 T01930178  RH  091%=      5-min Rain = 0.01
KOD1 230342Z 10007KT 19/18 A30 RMK A01 T01930178  RH  091%=      5-min Rain = 0
KOD1 230343Z 10007KT 19/18 A30 RMK A01 T01920178  RH  091%=      5-min Rain = 0
KOD1 230344Z 09007KT 19/18 A30 RMK A01 T01920178  RH  092%=      5-min Rain = 0
KOD1 230345Z 09006KT 19/18 A30 RMK A01 T01920178  RH  092%=      5-min Rain = 0
KOD1 230346Z 09006KT 19/18 A30 RMK A01 T01920178  RH  092%=      5-min Rain = 0
KOD1 230347Z 09006KT 19/18 A30 RMK A01 T01920179  RH  092%=      5-min Rain = 0.01
KOD1 230348Z 09005KT 19/18 A30 RMK A01 T01920179  RH  092%=      5-min Rain = 0
KOD1 230349Z 10005KT 19/18 A30 RMK A01 T01920179  RH  092%=      5-min Rain = 0
KOD1 230350Z 10004KT 19/18 A30 RMK A01 T01910178  RH  092%=      5-min Rain = 0
KOD1 230351Z 10005KT 19/18 A30 RMK A01 T01910178  RH  092%=      5-min Rain = 0
KOD1 230352Z 09005KT 19/18 A30 RMK A01 T01910178  RH  092%=      5-min Rain = 0
KOD1 230353Z 08006KT 19/18 A30 RMK A01 T01910178  RH  092%=      5-min Rain = 0
KOD1 230354Z 08005KT 19/18 A30 RMK A01 T01920178  RH  092%=      5-min Rain = 0.01
KOD1 230355Z 09006KT 19/18 A30 RMK A01 T01910178  RH  092%=      5-min Rain = 0
KOD1 230356Z 08008KT 19/18 A30 RMK A01 T01910178  RH  092%=      5-min Rain = 0
KOD1 230357Z 07007KT 19/18 A2999 RMK A01 T01910177  RH  092%=      5-min Rain = 0
KOD1 230358Z 07006KT 19/18 A2999 RMK A01 T01910177  RH  092%=      5-min Rain = 0
KOD1 230359Z 07006KT 19/18 A2999 RMK A01 T01900177  RH  092%=      5-min Rain = 0
KOD1 230400Z 07006KT 19/18 A2999 RMK A01 T01900177  RH  092%=      5-min Rain = 0
KOD1 230401Z 07006KT 19/18 A2999 RMK A01 T01900177  RH  092%=      5-min Rain = 0
KOD1 230402Z 06006KT 19/18 A2999 RMK A01 T01900177  RH  092%=      5-min Rain = 0
KOD1 230403Z 07005KT 19/18 A2999 RMK A01 T01900177  RH  092%=      5-min Rain = 0
KOD1 230404Z 07006KT 19/18 A2999 RMK A01 T01900177  RH  092%=      5-min Rain = 0
KOD1 230405Z 08006KT 19/18 A2999 RMK A01 T01900177  RH  092%=      5-min Rain = 0
KOD1 230406Z 08006KT 19/18 A2999 RMK A01 T01900177  RH  092%=      5-min Rain = 0
KOD1 230407Z 08006KT 19/18 A2999 RMK A01 T01900177  RH  092%=      5-min Rain = 0.01
KOD1 230408Z 07005KT 19/18 A2999 RMK A01 T01900177  RH  092%=      5-min Rain = 0
KOD1 230409Z 08006KT 19/18 A2999 RMK A01 T01900177  RH  092%=      5-min Rain = 0
KOD1 230410Z 08006KT 19/18 A2999 RMK A01 T01900176  RH  092%=      5-min Rain = 0
KOD1 230411Z 07006KT 19/18 A2999 RMK A01 T01900176  RH  092%=      5-min Rain = 0
KOD1 230412Z 07007KT 19/18 A2999 RMK A01 T01900177  RH  092%=      5-min Rain = 0
KOD1 230413Z 06006KT 19/18 A2999 RMK A01 T01900176  RH  092%=      5-min Rain = 0
KOD1 230414Z 06007KT 19/18 A2999 RMK A01 T01900176  RH  092%=      5-min Rain = 0
KOD1 230415Z 06006KT 19/18 A2999 RMK A01 T01890176  RH  092%=      5-min Rain = 0
KOD1 230416Z 06006KT 19/18 A2999 RMK A01 T01890176  RH  092%=      5-min Rain = 0
KOD1 230417Z 07006KT 19/18 A2999 RMK A01 T01890176  RH  092%=      5-min Rain = 0
KOD1 230418Z 06006KT 19/18 A2999 RMK A01 T01890176  RH  092%=      5-min Rain = 0
KOD1 230419Z 06005KT 19/18 A2999 RMK A01 T01890176  RH  092%=      5-min Rain = 0
KOD1 230420Z 06006KT 19/18 A2999 RMK A01 T01890176  RH  092%=      5-min Rain = 0
KOD1 230421Z 05005KT 19/18 A2999 RMK A01 T01890176  RH  092%=      5-min Rain = 0
KOD1 230422Z 05005KT 19/18 A2999 RMK A01 T01880176  RH  093%=      5-min Rain = 0
KOD1 230423Z 04005KT 19/18 A30 RMK A01 T01880176  RH  093%=      5-min Rain = 0
KOD1 230424Z 03004KT 19/18 A30 RMK A01 T01870176  RH  093%=      5-min Rain = 0
KOD1 230425Z 04004KT 19/18 A30 RMK A01 T01870177  RH  093%=      5-min Rain = 0
KOD1 230426Z 04004KT 19/18 A30 RMK A01 T01870176  RH  094%=      5-min Rain = 0
KOD1 230427Z 04004KT 19/18 A30 RMK A01 T01870177  RH  094%=      5-min Rain = 0
KOD1 230428Z 04004KT 19/18 A30 RMK A01 T01870177  RH  094%=      5-min Rain = 0
KOD1 230429Z 04004KT 19/18 A30 RMK A01 T01870177  RH  094%=      5-min Rain = 0
KOD1 230430Z 04004KT 19/18 A30 RMK A01 T01870177  RH  094%=      5-min Rain = 0
KOD1 230431Z 04004KT 19/18 A3001 RMK A01 T01870178  RH  094%=      5-min Rain = 0
KOD1 230432Z 03004KT 19/18 A3001 RMK A01 T01870178  RH  094%=      5-min Rain = 0
KOD1 230433Z 03005KT 19/18 A3001 RMK A01 T01870178  RH  094%=      5-min Rain = 0
KOD1 230434Z 03004KT 19/18 A3001 RMK A01 T01870178  RH  094%=      5-min Rain = 0
KOD1 230435Z 04004KT 19/18 A3001 RMK A01 T01870178  RH  094%=      5-min Rain = 0
KOD1 230436Z 04004KT 19/18 A3001 RMK A01 T01870178  RH  094%=      5-min Rain = 0
KOD1 230437Z 04004KT 19/18 A3001 RMK A01 T01870178  RH  094%=      5-min Rain = 0
KOD1 230438Z 03004KT 19/18 A3001 RMK A01 T01870178  RH  094%=      5-min Rain = 0
KOD1 230439Z 03004KT 19/18 A3001 RMK A01 T01880179  RH  094%=      5-min Rain = 0
KOD1 230440Z 03005KT 19/18 A3001 RMK A01 T01880179  RH  094%=      5-min Rain = 0
KOD1 230441Z 03005KT 19/18 A3001 RMK A01 T01880178  RH  094%=      5-min Rain = 0
KOD1 230442Z 03004KT 19/18 A3001 RMK A01 T01880179  RH  094%=      5-min Rain = 0
KOD1 230443Z 03004KT 19/18 A3001 RMK A01 T01880178  RH  094%=      5-min Rain = 0
KOD1 230444Z 03004KT 19/18 A3001 RMK A01 T01880178  RH  094%=      5-min Rain = 0
KOD1 230445Z 03005KT 19/18 A3001 RMK A01 T01880178  RH  094%=      5-min Rain = 0
KOD1 230446Z 03005KT 19/18 A30 RMK A01 T01880178  RH  094%=      5-min Rain = 0
KOD1 230447Z 03005KT 19/18 A30 RMK A01 T01880178  RH  094%=      5-min Rain = 0
KOD1 230448Z 03005KT 19/18 A30 RMK A01 T01880178  RH  094%=      5-min Rain = 0
KOD1 230449Z 03006KT 19/18 A30 RMK A01 T01880178  RH  094%=      5-min Rain = 0
KOD1 230450Z 03006KT 19/18 A30 RMK A01 T01880178  RH  094%=      5-min Rain = 0
KOD1 230451Z 03006KT 19/18 A30 RMK A01 T01880178  RH  094%=      5-min Rain = 0
KOD1 230452Z 03006KT 19/18 A30 RMK A01 T01880178  RH  094%=      5-min Rain = 0
KOD1 230453Z 03007KT 19/18 A30 RMK A01 T01880178  RH  094%=      5-min Rain = 0
KOD1 230454Z 03007KT 19/18 A30 RMK A01 T01880178  RH  094%=      5-min Rain = 0
KOD1 230455Z 03006KT 19/18 A30 RMK A01 T01880178  RH  094%=      5-min Rain = 0
KOD1 230456Z 03006KT 19/18 A30 RMK A01 T01880178  RH  094%=      5-min Rain = 0
KOD1 230457Z 04006KT 19/18 A30 RMK A01 T01880178  RH  094%=      5-min Rain = 0
KOD1 230458Z 04006KT 19/18 A30 RMK A01 T01880178  RH  094%=      5-min Rain = 0
KOD1 230459Z 04007KT 19/18 A30 RMK A01 T01880178  RH  094%=      5-min Rain = 0

Page generated in 0.0708 seconds.